Wetterdaten: Samstag, 31.03.2018
Datum Zeit Temp. Aussen Temp. o. S. +5cm Feuchte Auss BlattFeu 1 Luftdruck Regen Sonnenschein Regendauer Solar Windben Empfang
31.03.2018 00:00 8,2 C 7,8 C 6,1 C 84 % 0 lf 997,1 hPa 0,0 l/m 0 min 0 min 0 W/m 11,3 km/h (2 Bft) 93,62 %
31.03.2018 00:02 8,2 C 7,8 C 6,1 C 84 % 0 lf 997,0 hPa 0,0 l/m 0 min 0 min 0 W/m 11,3 km/h (2 Bft) 90,24 %
31.03.2018 00:04 8,2 C 7,8 C 6,1 C 85 % 0 lf 997,1 hPa 0,0 l/m 0 min 0 min 0 W/m 9,0 km/h (2 Bft) 93,62 %
31.03.2018 00:08 8,2 C 7,8 C 6,1 C 85 % 0 lf 997,1 hPa 0,0 l/m 0 min 0 min 0 W/m 13,5 km/h (3 Bft) 91,49 %
31.03.2018 00:10 8,1 C 7,8 C 6,1 C 85 % 0 lf 997,2 hPa 0,0 l/m 0 min 0 min 0 W/m 9,0 km/h (2 Bft) 93,62 %
31.03.2018 00:12 8,2 C 7,8 C 6,1 C 85 % 0 lf 997,1 hPa 0,0 l/m 0 min 0 min 0 W/m 9,0 km/h (2 Bft) 89,13 %
31.03.2018 00:14 8,1 C 7,8 C 6,1 C 85 % 0 lf 997,1 hPa 0,0 l/m 0 min 0 min 0 W/m 15,8 km/h (3 Bft) 93,62 %
31.03.2018 00:16 8,1 C 7,8 C 6,1 C 85 % 0 lf 997,1 hPa 0,0 l/m 0 min 0 min 0 W/m 13,5 km/h (3 Bft) 89,36 %
31.03.2018 00:18 8,1 C 7,8 C 6,1 C 85 % 0 lf 997,2 hPa 0,0 l/m 0 min 0 min 0 W/m 11,3 km/h (2 Bft) 93,62 %
31.03.2018 00:20 8,1 C 7,8 C 6,1 C 85 % 0 lf 997,1 hPa 0,0 l/m 0 min 0 min 0 W/m 6,8 km/h (2 Bft) 91,49 %
31.03.2018 00:22 8,1 C 7,8 C 6,1 C 85 % 0 lf 997,1 hPa 0,0 l/m 0 min 0 min 0 W/m 13,5 km/h (3 Bft) 91,49 %
31.03.2018 00:24 8,1 C 7,8 C 6,1 C 85 % 0 lf 997,1 hPa 0,0 l/m 0 min 0 min 0 W/m 9,0 km/h (2 Bft) 89,13 %
31.03.2018 00:26 8,1 C 7,8 C 6,1 C 85 % 0 lf 997,0 hPa 0,0 l/m 0 min 0 min 0 W/m 13,5 km/h (3 Bft) 93,62 %
31.03.2018 00:28 8,1 C 7,8 C 6,1 C 85 % 0 lf 997,1 hPa 0,0 l/m 0 min 0 min 0 W/m 9,0 km/h (2 Bft) 91,49 %
31.03.2018 00:30 8,1 C 7,8 C 6,1 C 85 % 0 lf 997,0 hPa 0,0 l/m 0 min 0 min 0 W/m 11,3 km/h (2 Bft) 93,62 %
31.03.2018 00:32 8,0 C 7,8 C 6,1 C 85 % 0 lf 997,0 hPa 0,0 l/m 0 min 0 min 0 W/m 15,8 km/h (3 Bft) 91,49 %
31.03.2018 00:34 8,0 C 7,8 C 6,1 C 85 % 0 lf 997,0 hPa 0,0 l/m 0 min 0 min 0 W/m 11,3 km/h (2 Bft) 93,62 %
31.03.2018 00:36 8,0 C 7,8 C 6,1 C 85 % 0 lf 997,1 hPa 0,0 l/m 0 min 0 min 0 W/m 11,3 km/h (2 Bft) 91,30 %
31.03.2018 00:38 8,0 C 7,8 C 6,1 C 85 % 0 lf 997,1 hPa 0,0 l/m 0 min 0 min 0 W/m 11,3 km/h (2 Bft) 93,62 %
31.03.2018 00:40 8,0 C 7,8 C 6,1 C 85 % 0 lf 997,1 hPa 0,0 l/m 0 min 0 min 0 W/m 11,3 km/h (2 Bft) 93,62 %
31.03.2018 00:42 7,9 C 7,8 C 6,1 C 85 % 0 lf 997,0 hPa 0,0 l/m 0 min 0 min 0 W/m 9,0 km/h (2 Bft) 93,62 %
31.03.2018 00:44 7,9 C 7,2 C 6,1 C 85 % 0 lf 997,1 hPa 0,0 l/m 0 min 0 min 0 W/m 11,3 km/h (2 Bft) 97,87 %
31.03.2018 00:46 7,9 C 7,2 C 6,1 C 85 % 0 lf 997,1 hPa 0,0 l/m 0 min 0 min 0 W/m 11,3 km/h (2 Bft) 95,74 %
31.03.2018 00:48 7,9 C 7,2 C 6,1 C 85 % 0 lf 997,0 hPa 0,0 l/m 0 min 0 min 0 W/m 13,5 km/h (3 Bft) 97,83 %
31.03.2018 00:50 7,9 C 7,2 C 6,1 C 85 % 0 lf 997,1 hPa 0,0 l/m 0 min 0 min 0 W/m 9,0 km/h (2 Bft) 95,74 %
31.03.2018 00:52 7,9 C 7,8 C 6,1 C 85 % 0 lf 997,1 hPa 0,0 l/m 0 min 0 min 0 W/m 11,3 km/h (2 Bft) 97,87 %
31.03.2018 00:54 7,9 C 7,8 C 6,1 C 85 % 0 lf 997,1 hPa 0,0 l/m 0 min 0 min 0 W/m 11,3 km/h (2 Bft) 97,87 %
31.03.2018 00:56 7,9 C 7,8 C 6,1 C 85 % 0 lf 997,0 hPa 0,0 l/m 0 min 0 min 0 W/m 9,0 km/h (2 Bft) 93,62 %
31.03.2018 00:58 7,9 C 7,2 C 6,1 C 85 % 0 lf 997,1 hPa 0,0 l/m 0 min 0 min 0 W/m 11,3 km/h (2 Bft) 93,62 %
31.03.2018 01:00 7,9 C 7,2 C 6,1 C 85 % 0 lf 997,0 hPa 0,0 l/m 0 min 0 min 0 W/m 9,0 km/h (2 Bft) 100,00 %
31.03.2018 01:02 7,9 C 7,2 C 5,6 C 85 % 0 lf 997,0 hPa 0,0 l/m 0 min 0 min 0 W/m 9,0 km/h (2 Bft) 97,87 %
31.03.2018 01:04 7,9 C 7,2 C 5,6 C 85 % 0 lf 997,0 hPa 0,0 l/m 0 min 0 min 0 W/m 9,0 km/h (2 Bft) 97,87 %
31.03.2018 01:06 7,8 C 7,2 C 5,6 C 85 % 0 lf 997,0 hPa 0,0 l/m 0 min 0 min 0 W/m 9,0 km/h (2 Bft) 100,00 %
31.03.2018 01:08 7,8 C 7,2 C 5,6 C 85 % 0 lf 997,0 hPa 0,0 l/m 0 min 0 min 0 W/m 9,0 km/h (2 Bft) 100,00 %
31.03.2018 01:10 7,8 C 7,2 C 5,6 C 85 % 0 lf 997,0 hPa 0,0 l/m 0 min 0 min 0 W/m 11,3 km/h (2 Bft) 100,00 %
31.03.2018 01:12 7,8 C 7,2 C 5,6 C 85 % 0 lf 997,0 hPa 0,0 l/m 0 min 0 min 0 W/m 11,3 km/h (2 Bft) 100,00 %
31.03.2018 01:14 7,8 C 7,2 C 5,6 C 85 % 0 lf 997,0 hPa 0,0 l/m 0 min 0 min 0 W/m 9,0 km/h (2 Bft) 97,87 %
31.03.2018 01:16 7,8 C 7,2 C 5,0 C 85 % 0 lf 997,0 hPa 0,0 l/m 0 min 0 min 0 W/m 6,8 km/h (2 Bft) 100,00 %
31.03.2018 01:18 7,7 C 7,2 C 5,0 C 85 % 0 lf 997,0 hPa 0,0 l/m 0 min 0 min 0 W/m 9,0 km/h (2 Bft) 100,00 %
31.03.2018 01:20 7,7 C 6,7 C 5,0 C 85 % 0 lf 997,0 hPa 0,0 l/m 0 min 0 min 0 W/m 6,8 km/h (2 Bft) 100,00 %
31.03.2018 01:22 7,7 C 6,7 C 4,4 C 85 % 0 lf 997,1 hPa 0,0 l/m 0 min 0 min 0 W/m 6,8 km/h (2 Bft) 100,00 %
31.03.2018 01:24 7,7 C 6,7 C 4,4 C 85 % 0 lf 997,0 hPa 0,0 l/m 0 min 0 min 0 W/m 0,0 km/h (0 Bft) 100,00 %
31.03.2018 01:26 7,7 C 6,7 C 3,9 C 85 % 0 lf 997,0 hPa 0,0 l/m 0 min 0 min 0 W/m 4,5 km/h (1 Bft) 100,00 %
31.03.2018 01:28 7,7 C 6,7 C 3,9 C 85 % 0 lf 997,0 hPa 0,0 l/m 0 min 0 min 0 W/m 6,8 km/h (2 Bft) 100,00 %
31.03.2018 01:30 7,6 C 6,7 C 3,9 C 85 % 0 lf 997,1 hPa 0,0 l/m 0 min 0 min 0 W/m 4,5 km/h (1 Bft) 97,87 %
31.03.2018 01:32 7,6 C 6,7 C 3,9 C 85 % 0 lf 997,0 hPa 0,0 l/m 0 min 0 min 0 W/m 9,0 km/h (2 Bft) 100,00 %
31.03.2018 01:34 7,6 C 6,7 C 3,9 C 85 % 0 lf 997,1 hPa 0,0 l/m 0 min 0 min 0 W/m 9,0 km/h (2 Bft) 97,87 %
31.03.2018 01:36 7,6 C 6,7 C 3,9 C 85 % 0 lf 997,1 hPa 0,0 l/m 0 min 0 min 0 W/m 6,8 km/h (2 Bft) 100,00 %
31.03.2018 01:38 7,5 C 6,7 C 4,4 C 85 % 0 lf 997,1 hPa 0,0 l/m 0 min 0 min 0 W/m 6,8 km/h (2 Bft) 95,74 %
31.03.2018 01:40 7,5 C 6,7 C 4,4 C 85 % 0 lf 997,1 hPa 0,0 l/m 0 min 0 min 0 W/m 6,8 km/h (2 Bft) 100,00 %
31.03.2018 01:42 7,4 C 6,7 C 4,4 C 85 % 0 lf 997,1 hPa 0,0 l/m 0 min 0 min 0 W/m 6,8 km/h (2 Bft) 100,00 %
31.03.2018 01:44 7,4 C 6,7 C 4,4 C 85 % 0 lf 997,1 hPa 0,0 l/m 0 min 0 min 0 W/m 9,0 km/h (2 Bft) 100,00 %
31.03.2018 01:46 7,4 C 6,7 C 4,4 C 85 % 0 lf 997,1 hPa 0,0 l/m 0 min 0 min 0 W/m 11,3 km/h (2 Bft) 100,00 %
31.03.2018 01:48 7,4 C 6,7 C 4,4 C 86 % 0 lf 997,1 hPa 0,0 l/m 0 min 0 min 0 W/m 6,8 km/h (2 Bft) 95,74 %
31.03.2018 01:50 7,4 C 6,7 C 4,4 C 86 % 0 lf 997,1 hPa 0,0 l/m 0 min 0 min 0 W/m 11,3 km/h (2 Bft) 100,00 %
31.03.2018 01:52 7,3 C 6,7 C 4,4 C 86 % 0 lf 997,2 hPa 0,0 l/m 0 min 0 min 0 W/m 6,8 km/h (2 Bft) 95,74 %
31.03.2018 01:54 7,3 C 6,7 C 4,4 C 86 % 0 lf 997,1 hPa 0,0 l/m 0 min 0 min 0 W/m 6,8 km/h (2 Bft) 93,62 %
31.03.2018 01:56 7,3 C 6,7 C 4,4 C 86 % 0 lf 997,2 hPa 0,0 l/m 0 min 0 min 0 W/m 6,8 km/h (2 Bft) 95,65 %
31.03.2018 01:58 7,3 C 6,1 C 3,9 C 86 % 0 lf 997,2 hPa 0,0 l/m 0 min 0 min 0 W/m 6,8 km/h (2 Bft) 95,74 %
31.03.2018 02:00 7,2 C 6,1 C 3,9 C 86 % 0 lf 997,2 hPa 0,0 l/m 0 min 0 min 0 W/m 9,0 km/h (2 Bft) 100,00 %
31.03.2018 02:02 7,2 C 6,1 C 3,9 C 86 % 0 lf 997,1 hPa 0,0 l/m 0 min 0 min 0 W/m 6,8 km/h (2 Bft) 89,36 %
31.03.2018 02:04 7,2 C 6,1 C 3,9 C 86 % 0 lf 997,2 hPa 0,0 l/m 0 min 0 min 0 W/m 4,5 km/h (1 Bft) 97,87 %
31.03.2018 02:06 7,2 C 6,1 C 3,9 C 86 % 0 lf 997,2 hPa 0,0 l/m 0 min 0 min 0 W/m 15,8 km/h (3 Bft) 97,87 %
31.03.2018 02:08 7,2 C 6,1 C 4,4 C 87 % 0 lf 997,2 hPa 0,0 l/m 0 min 0 min 0 W/m 11,3 km/h (2 Bft) 97,83 %
31.03.2018 02:10 7,1 C 6,1 C 3,9 C 87 % 0 lf 997,2 hPa 0,0 l/m 0 min 0 min 0 W/m 9,0 km/h (2 Bft) 95,74 %
31.03.2018 02:12 7,1 C 6,1 C 3,9 C 86 % 0 lf 997,2 hPa 0,0 l/m 0 min 0 min 0 W/m 6,8 km/h (2 Bft) 97,87 %
31.03.2018 02:14 7,1 C 6,1 C 3,9 C 86 % 0 lf 997,3 hPa 0,0 l/m 0 min 0 min 0 W/m 9,0 km/h (2 Bft) 97,87 %
31.03.2018 02:16 7,1 C 6,1 C 3,9 C 86 % 0 lf 997,3 hPa 0,0 l/m 0 min 0 min 0 W/m 4,5 km/h (1 Bft) 97,87 %
31.03.2018 02:18 7,0 C 6,1 C 3,3 C 87 % 0 lf 997,3 hPa 0,0 l/m 0 min 0 min 0 W/m 4,5 km/h (1 Bft) 97,87 %
31.03.2018 02:20 7,0 C 6,1 C 3,3 C 87 % 0 lf 997,2 hPa 0,0 l/m 0 min 0 min 0 W/m 9,0 km/h (2 Bft) 97,83 %
31.03.2018 02:22 6,9 C 6,1 C 3,9 C 87 % 0 lf 997,3 hPa 0,0 l/m 0 min 0 min 0 W/m 9,0 km/h (2 Bft) 97,87 %
31.03.2018 02:24 6,9 C 6,1 C 3,9 C 87 % 0 lf 997,3 hPa 0,0 l/m 0 min 0 min 0 W/m 9,0 km/h (2 Bft) 95,74 %
31.03.2018 02:26 6,9 C 6,1 C 3,3 C 87 % 0 lf 997,3 hPa 0,0 l/m 0 min 0 min 0 W/m 9,0 km/h (2 Bft) 97,87 %
31.03.2018 02:28 6,9 C 6,1 C 3,3 C 87 % 0 lf 997,3 hPa 0,0 l/m 0 min 0 min 0 W/m 6,8 km/h (2 Bft) 100,00 %
31.03.2018 02:30 6,8 C 6,1 C 3,9 C 87 % 0 lf 997,3 hPa 0,0 l/m 0 min 0 min 0 W/m 6,8 km/h (2 Bft) 100,00 %
31.03.2018 02:32 6,8 C 6,1 C 3,3 C 87 % 0 lf 997,3 hPa 0,0 l/m 0 min 0 min 0 W/m 6,8 km/h (2 Bft) 100,00 %
31.03.2018 02:34 6,8 C 6,1 C 3,9 C 87 % 0 lf 997,3 hPa 0,0 l/m 0 min 0 min 0 W/m 4,5 km/h (1 Bft) 97,87 %
31.03.2018 02:36 6,7 C 6,1 C 3,9 C 87 % 0 lf 997,3 hPa 0,0 l/m 0 min 0 min 0 W/m 4,5 km/h (1 Bft) 97,87 %
31.03.2018 02:38 6,7 C 5,6 C 3,3 C 87 % 0 lf 997,3 hPa 0,0 l/m 0 min 0 min 0 W/m 4,5 km/h (1 Bft) 100,00 %
31.03.2018 02:40 6,7 C 5,6 C 3,3 C 87 % 0 lf 997,3 hPa 0,0 l/m 0 min 0 min 0 W/m 6,8 km/h (2 Bft) 97,87 %
31.03.2018 02:42 6,7 C 5,6 C 3,3 C 87 % 0 lf 997,4 hPa 0,0 l/m 0 min 0 min 0 W/m 4,5 km/h (1 Bft) 97,83 %
31.03.2018 02:44 6,6 C 5,6 C 3,3 C 88 % 0 lf 997,4 hPa 0,0 l/m 0 min 0 min 0 W/m 0,0 km/h (0 Bft) 97,87 %
31.03.2018 02:46 6,6 C 5,6 C 2,8 C 88 % 0 lf 997,4 hPa 0,0 l/m 0 min 0 min 0 W/m 0,0 km/h (0 Bft) 100,00 %
31.03.2018 02:48 6,6 C 5,6 C 2,8 C 88 % 0 lf 997,4 hPa 0,0 l/m 0 min 0 min 0 W/m 0,0 km/h (0 Bft) 97,87 %
31.03.2018 02:50 6,5 C 5,6 C 2,8 C 87 % 0 lf 997,4 hPa 0,0 l/m 0 min 0 min 0 W/m 0,0 km/h (0 Bft) 97,87 %
31.03.2018 02:52 6,4 C 5,0 C 2,8 C 87 % 0 lf 997,4 hPa 0,0 l/m 0 min 0 min 0 W/m 0,0 km/h (0 Bft) 97,87 %
31.03.2018 02:54 6,4 C 5,0 C 2,8 C 88 % 0 lf 997,5 hPa 0,0 l/m 0 min 0 min 0 W/m 0,0 km/h (0 Bft) 95,65 %
31.03.2018 02:56 6,4 C 5,0 C 2,8 C 88 % 0 lf 997,4 hPa 0,0 l/m 0 min 0 min 0 W/m 0,0 km/h (0 Bft) 95,74 %
31.03.2018 02:58 6,4 C 5,0 C 2,2 C 88 % 1 lf 997,3 hPa 0,0 l/m 0 min 0 min 0 W/m 6,8 km/h (2 Bft) 93,62 %
31.03.2018 03:00 6,3 C 5,0 C 2,2 C 88 % 1 lf 997,4 hPa 0,0 l/m 0 min 0 min 0 W/m 4,5 km/h (1 Bft) 93,62 %
31.03.2018 03:02 6,3 C 5,0 C 2,2 C 88 % 1 lf 997,3 hPa 0,0 l/m 0 min 0 min 0 W/m 2,3 km/h (1 Bft) 89,36 %
31.03.2018 03:04 6,3 C 5,0 C 2,2 C 88 % 1 lf 997,3 hPa 0,0 l/m 0 min 0 min 0 W/m 0,0 km/h (0 Bft) 91,49 %
31.03.2018 03:06 6,2 C 5,0 C 2,2 C 88 % 1 lf 997,3 hPa 0,0 l/m 0 min 0 min 0 W/m 0,0 km/h (0 Bft) 95,65 %
31.03.2018 03:08 6,2 C 5,0 C 2,2 C 88 % 1 lf 997,3 hPa 0,0 l/m 0 min 0 min 0 W/m 0,0 km/h (0 Bft) 93,62 %
31.03.2018 03:10 6,2 C 5,0 C 2,2 C 88 % 1 lf 997,4 hPa 0,0 l/m 0 min 0 min 0 W/m 4,5 km/h (1 Bft) 93,62 %
31.03.2018 03:12 6,1 C 5,0 C 2,2 C 88 % 1 lf 997,4 hPa 0,0 l/m 0 min 0 min 0 W/m 2,3 km/h (1 Bft) 91,49 %
31.03.2018 03:14 6,1 C 5,0 C 2,2 C 88 % 1 lf 997,4 hPa 0,0 l/m 0 min 0 min 0 W/m 0,0 km/h (0 Bft) 93,62 %
31.03.2018 03:16 6,0 C 5,0 C 2,2 C 88 % 1 lf 997,4 hPa 0,0 l/m 0 min 0 min 0 W/m 0,0 km/h (0 Bft) 89,36 %
31.03.2018 03:18 6,0 C 5,0 C 2,2 C 88 % 1 lf 997,4 hPa 0,0 l/m 0 min 0 min 0 W/m 0,0 km/h (0 Bft) 93,48 %
31.03.2018 03:20 5,9 C 5,0 C 2,2 C 88 % 1 lf 997,4 hPa 0,0 l/m 0 min 0 min 0 W/m 0,0 km/h (0 Bft) 89,36 %
31.03.2018 03:22 5,9 C 5,0 C 2,2 C 88 % 1 lf 997,4 hPa 0,0 l/m 0 min 0 min 0 W/m 0,0 km/h (0 Bft) 93,62 %
31.03.2018 03:24 5,9 C 4,4 C 1,7 C 88 % 1 lf 997,4 hPa 0,0 l/m 0 min 0 min 0 W/m 0,0 km/h (0 Bft) 91,49 %
31.03.2018 03:26 5,8 C 4,4 C 1,7 C 88 % 1 lf 997,4 hPa 0,0 l/m 0 min 0 min 0 W/m 0,0 km/h (0 Bft) 93,62 %
31.03.2018 03:28 5,8 C 4,4 C 1,7 C 89 % 1 lf 997,4 hPa 0,0 l/m 0 min 0 min 0 W/m 0,0 km/h (0 Bft) 91,30 %
31.03.2018 03:30 5,8 C 4,4 C 1,7 C 89 % 1 lf 997,4 hPa 0,0 l/m 0 min 0 min 0 W/m 4,5 km/h (1 Bft) 93,62 %
31.03.2018 03:32 5,7 C 4,4 C 1,7 C 89 % 2 lf 997,3 hPa 0,0 l/m 0 min 0 min 0 W/m 4,5 km/h (1 Bft) 93,62 %
31.03.2018 03:34 5,7 C 4,4 C 1,7 C 89 % 2 lf 997,3 hPa 0,0 l/m 0 min 0 min 0 W/m 4,5 km/h (1 Bft) 91,49 %
31.03.2018 03:36 5,7 C 4,4 C 1,7 C 89 % 2 lf 997,3 hPa 0,0 l/m 0 min 0 min 0 W/m 6,8 km/h (2 Bft) 89,36 %
31.03.2018 03:38 5,6 C 4,4 C 1,7 C 89 % 2 lf 997,4 hPa 0,0 l/m 0 min 0 min 0 W/m 0,0 km/h (0 Bft) 93,62 %
31.03.2018 03:40 5,6 C 4,4 C 1,7 C 89 % 2 lf 997,4 hPa 0,0 l/m 0 min 0 min 0 W/m 4,5 km/h (1 Bft) 93,62 %
31.03.2018 03:42 5,6 C 4,4 C 1,7 C 89 % 2 lf 997,4 hPa 0,0 l/m 0 min 0 min 0 W/m 2,3 km/h (1 Bft) 97,83 %
31.03.2018 03:44 5,5 C 4,4 C 1,7 C 89 % 2 lf 997,4 hPa 0,0 l/m 0 min 0 min 0 W/m 0,0 km/h (0 Bft) 95,74 %
31.03.2018 03:46 5,5 C 4,4 C 1,7 C 89 % 2 lf 997,4 hPa 0,0 l/m 0 min 0 min 0 W/m 2,3 km/h (1 Bft) 93,62 %
31.03.2018 03:48 5,4 C 4,4 C 1,7 C 89 % 2 lf 997,4 hPa 0,0 l/m 0 min 0 min 0 W/m 4,5 km/h (1 Bft) 93,62 %
31.03.2018 03:50 5,4 C 4,4 C 1,1 C 89 % 2 lf 997,4 hPa 0,0 l/m 0 min 0 min 0 W/m 2,3 km/h (1 Bft) 97,87 %
31.03.2018 03:52 5,4 C 4,4 C 1,1 C 89 % 2 lf 997,4 hPa 0,0 l/m 0 min 0 min 0 W/m 4,5 km/h (1 Bft) 97,83 %
31.03.2018 03:54 5,4 C 4,4 C 1,7 C 89 % 3 lf 997,4 hPa 0,0 l/m 0 min 0 min 0 W/m 2,3 km/h (1 Bft) 95,74 %
31.03.2018 03:56 5,3 C 4,4 C 1,1 C 89 % 3 lf 997,4 hPa 0,0 l/m 0 min 0 min 0 W/m 0,0 km/h (0 Bft) 93,62 %
31.03.2018 03:58 5,3 C 3,9 C 1,1 C 90 % 3 lf 997,4 hPa 0,0 l/m 0 min 0 min 0 W/m 0,0 km/h (0 Bft) 95,74 %
31.03.2018 04:00 5,3 C 3,9 C 1,1 C 90 % 3 lf 997,5 hPa 0,0 l/m 0 min 0 min 0 W/m 2,3 km/h (1 Bft) 95,74 %
31.03.2018 04:02 5,2 C 3,9 C 1,1 C 90 % 3 lf 997,4 hPa 0,0 l/m 0 min 0 min 0 W/m 2,3 km/h (1 Bft) 96,97 %
31.03.2018 04:04 5,2 C 3,9 C 1,1 C 90 % 3 lf 997,4 hPa 0,0 l/m 0 min 0 min 0 W/m 2,3 km/h (1 Bft) 95,65 %
31.03.2018 04:06 5,2 C 3,9 C 1,1 C 90 % 3 lf 997,3 hPa 0,0 l/m 0 min 0 min 0 W/m 4,5 km/h (1 Bft) 95,74 %
31.03.2018 04:08 5,2 C 3,9 C 1,1 C 90 % 3 lf 997,3 hPa 0,0 l/m 0 min 0 min 0 W/m 2,3 km/h (1 Bft) 97,87 %
31.03.2018 04:10 5,1 C 3,9 C 1,1 C 90 % 3 lf 997,2 hPa 0,0 l/m 0 min 0 min 0 W/m 0,0 km/h (0 Bft) 97,87 %
31.03.2018 04:12 5,1 C 3,9 C 1,1 C 90 % 3 lf 997,2 hPa 0,0 l/m 0 min 0 min 0 W/m 2,3 km/h (1 Bft) 97,87 %
31.03.2018 04:14 5,1 C 3,9 C 1,1 C 90 % 4 lf 997,2 hPa 0,0 l/m 0 min 0 min 0 W/m 2,3 km/h (1 Bft) 97,87 %
31.03.2018 04:16 5,0 C 3,9 C 1,1 C 90 % 4 lf 997,3 hPa 0,0 l/m 0 min 0 min 0 W/m 4,5 km/h (1 Bft) 97,83 %
31.03.2018 04:18 5,0 C 3,9 C 1,1 C 90 % 4 lf 997,3 hPa 0,0 l/m 0 min 0 min 0 W/m 4,5 km/h (1 Bft) 93,62 %
31.03.2018 04:20 4,9 C 3,9 C 1,7 C 90 % 4 lf 997,4 hPa 0,0 l/m 0 min 0 min 0 W/m 0,0 km/h (0 Bft) 97,87 %
31.03.2018 04:22 4,9 C 3,9 C 1,7 C 90 % 4 lf 997,4 hPa 0,0 l/m 0 min 0 min 0 W/m 2,3 km/h (1 Bft) 97,87 %
31.03.2018 04:24 4,9 C 3,9 C 1,7 C 90 % 4 lf 997,4 hPa 0,0 l/m 0 min 0 min 0 W/m 4,5 km/h (1 Bft) 97,87 %
31.03.2018 04:26 4,9 C 3,9 C 1,7 C 90 % 4 lf 997,4 hPa 0,0 l/m 0 min 0 min 0 W/m 2,3 km/h (1 Bft) 93,62 %
31.03.2018 04:28 4,8 C 3,9 C 1,7 C 90 % 5 lf 997,4 hPa 0,0 l/m 0 min 0 min 0 W/m 4,5 km/h (1 Bft) 95,65 %
31.03.2018 04:30 4,8 C 3,9 C 1,7 C 91 % 5 lf 997,4 hPa 0,0 l/m 0 min 0 min 0 W/m 0,0 km/h (0 Bft) 97,87 %
31.03.2018 04:32 4,8 C 3,9 C 1,1 C 91 % 5 lf 997,3 hPa 0,0 l/m 0 min 0 min 0 W/m 2,3 km/h (1 Bft) 100,00 %
31.03.2018 04:34 4,8 C 3,9 C 1,1 C 91 % 6 lf 997,3 hPa 0,0 l/m 0 min 0 min 0 W/m 2,3 km/h (1 Bft) 97,87 %
31.03.2018 04:36 4,7 C 3,3 C 1,1 C 91 % 6 lf 997,4 hPa 0,0 l/m 0 min 0 min 0 W/m 2,3 km/h (1 Bft) 97,87 %
31.03.2018 04:38 4,7 C 3,3 C 1,1 C 91 % 6 lf 997,3 hPa 0,0 l/m 0 min 0 min 0 W/m 2,3 km/h (1 Bft) 100,00 %
31.03.2018 04:40 4,7 C 3,3 C 1,1 C 91 % 7 lf 997,3 hPa 0,0 l/m 0 min 0 min 0 W/m 2,3 km/h (1 Bft) 100,00 %
31.03.2018 04:42 4,6 C 3,3 C 0,6 C 91 % 7 lf 997,4 hPa 0,0 l/m 0 min 0 min 0 W/m 2,3 km/h (1 Bft) 100,00 %
31.03.2018 04:44 4,6 C 3,3 C 0,6 C 91 % 8 lf 997,4 hPa 0,0 l/m 0 min 0 min 0 W/m 2,3 km/h (1 Bft) 100,00 %
31.03.2018 04:46 4,6 C 3,3 C 0,6 C 91 % 9 lf 997,3 hPa 0,0 l/m 0 min 0 min 0 W/m 2,3 km/h (1 Bft) 97,87 %
31.03.2018 04:48 4,6 C 3,3 C 1,1 C 91 % 9 lf 997,3 hPa 0,0 l/m 0 min 0 min 0 W/m 0,0 km/h (0 Bft) 97,87 %
31.03.2018 04:50 4,5 C 3,3 C 0,6 C 91 % 10 lf 997,2 hPa 0,0 l/m 0 min 0 min 0 W/m 4,5 km/h (1 Bft) 100,00 %
31.03.2018 04:52 4,5 C 3,3 C 0,6 C 91 % 10 lf 997,2 hPa 0,0 l/m 0 min 0 min 0 W/m 2,3 km/h (1 Bft) 100,00 %
31.03.2018 04:54 4,5 C 3,9 C 0,6 C 91 % 10 lf 997,2 hPa 0,0 l/m 0 min 0 min 0 W/m 2,3 km/h (1 Bft) 100,00 %
31.03.2018 04:56 4,4 C 3,9 C 0,6 C 91 % 11 lf 997,2 hPa 0,0 l/m 0 min 0 min 0 W/m 2,3 km/h (1 Bft) 100,00 %
31.03.2018 04:58 4,4 C 3,9 C 0,6 C 91 % 11 lf 997,3 hPa 0,0 l/m 0 min 0 min 0 W/m 2,3 km/h (1 Bft) 97,87 %
31.03.2018 05:00 4,4 C 3,9 C 0,6 C 91 % 12 lf 997,2 hPa 0,0 l/m 0 min 0 min 0 W/m 0,0 km/h (0 Bft) 97,87 %
31.03.2018 05:02 4,4 C 3,3 C 0,6 C 91 % 12 lf 997,2 hPa 0,0 l/m 0 min 0 min 0 W/m 0,0 km/h (0 Bft) 93,48 %
31.03.2018 05:04 4,4 C 3,3 C 0,6 C 91 % 12 lf 997,2 hPa 0,0 l/m 0 min 0 min 0 W/m 2,3 km/h (1 Bft) 100,00 %
31.03.2018 05:06 4,4 C 3,3 C 0,6 C 91 % 12 lf 997,2 hPa 0,0 l/m 0 min 0 min 0 W/m 2,3 km/h (1 Bft) 100,00 %
31.03.2018 05:08 4,3 C 3,3 C 0,6 C 91 % 13 lf 997,2 hPa 0,0 l/m 0 min 0 min 0 W/m 2,3 km/h (1 Bft) 100,00 %
31.03.2018 05:10 4,3 C 3,3 C 0,6 C 92 % 13 lf 997,3 hPa 0,0 l/m 0 min 0 min 0 W/m 2,3 km/h (1 Bft) 100,00 %
31.03.2018 05:12 4,3 C 3,3 C 0,6 C 92 % 13 lf 997,3 hPa 0,0 l/m 0 min 0 min 0 W/m 2,3 km/h (1 Bft) 97,87 %
31.03.2018 05:14 4,3 C 3,3 C 0,6 C 92 % 13 lf 997,3 hPa 0,0 l/m 0 min 0 min 0 W/m 0,0 km/h (0 Bft) 100,00 %
31.03.2018 05:16 4,2 C 3,3 C 0,6 C 92 % 14 lf 997,3 hPa 0,0 l/m 0 min 0 min 0 W/m 2,3 km/h (1 Bft) 97,87 %
31.03.2018 05:18 4,2 C 3,3 C 0,6 C 92 % 14 lf 997,4 hPa 0,0 l/m 0 min 0 min 0 W/m 2,3 km/h (1 Bft) 100,00 %
31.03.2018 05:20 4,2 C 3,3 C 0,6 C 92 % 14 lf 997,4 hPa 0,0 l/m 0 min 0 min 0 W/m 4,5 km/h (1 Bft) 100,00 %
31.03.2018 05:22 4,2 C 3,3 C 0,6 C 92 % 14 lf 997,4 hPa 0,0 l/m 0 min 0 min 0 W/m 2,3 km/h (1 Bft) 97,87 %
31.03.2018 05:24 4,2 C 3,3 C 0,6 C 92 % 15 lf 997,3 hPa 0,0 l/m 0 min 0 min 0 W/m 4,5 km/h (1 Bft) 100,00 %
31.03.2018 05:26 4,2 C 3,3 C 0,6 C 92 % 14 lf 997,4 hPa 0,0 l/m 0 min 0 min 0 W/m 2,3 km/h (1 Bft) 97,83 %
31.03.2018 05:28 4,1 C 3,3 C 0,6 C 92 % 14 lf 997,4 hPa 0,0 l/m 0 min 0 min 0 W/m 4,5 km/h (1 Bft) 95,74 %
31.03.2018 05:30 4,1 C 3,3 C 0,6 C 92 % 15 lf 997,3 hPa 0,0 l/m 0 min 0 min 0 W/m 4,5 km/h (1 Bft) 97,87 %
31.03.2018 05:32 4,1 C 3,3 C 0,6 C 92 % 15 lf 997,4 hPa 0,0 l/m 0 min 0 min 0 W/m 2,3 km/h (1 Bft) 93,62 %
31.03.2018 05:34 4,1 C 2,8 C 0,0 C 92 % 15 lf 997,4 hPa 0,0 l/m 0 min 0 min 0 W/m 2,3 km/h (1 Bft) 95,74 %
31.03.2018 05:35 4,1 C 2,8 C 0,0 C 92 % 15 lf 997,4 hPa 0,0 l/m 0 min 0 min 0 W/m 2,3 km/h (1 Bft) 98,25 %
31.03.2018 05:40 4,0 C 3,3 C 0,0 C 92 % 15 lf 997,4 hPa 0,0 l/m 0 min 0 min 0 W/m 2,3 km/h (1 Bft) 83,33 %
31.03.2018 05:42 3,9 C 3,3 C 0,0 C 92 % 15 lf 997,4 hPa 0,0 l/m 0 min 0 min 0 W/m 2,3 km/h (1 Bft) 97,83 %
31.03.2018 05:44 3,9 C 2,8 C 0,0 C 92 % 15 lf 997,4 hPa 0,0 l/m 0 min 0 min 0 W/m 2,3 km/h (1 Bft) 97,87 %
31.03.2018 05:46 3,9 C 2,8 C 0,0 C 92 % 15 lf 997,4 hPa 0,0 l/m 0 min 0 min 0 W/m 0,0 km/h (0 Bft) 95,74 %
31.03.2018 05:48 3,9 C 3,3 C 0,0 C 92 % 15 lf 997,4 hPa 0,0 l/m 0 min 0 min 0 W/m 2,3 km/h (1 Bft) 93,62 %
31.03.2018 05:50 3,9 C 3,3 C 0,0 C 92 % 15 lf 997,5 hPa 0,0 l/m 0 min 0 min 0 W/m 2,3 km/h (1 Bft) 96,55 %
31.03.2018 05:52 3,8 C 3,3 C 0,0 C 92 % 15 lf 997,5 hPa 0,0 l/m 0 min 0 min 0 W/m 2,3 km/h (1 Bft) 95,74 %
31.03.2018 05:54 3,8 C 3,3 C 0,0 C 92 % 15 lf 997,5 hPa 0,0 l/m 0 min 0 min 0 W/m 2,3 km/h (1 Bft) 97,14 %
31.03.2018 05:56 3,8 C 3,3 C 0,0 C 93 % 15 lf 997,6 hPa 0,0 l/m 0 min 0 min 0 W/m 2,3 km/h (1 Bft) 93,62 %
31.03.2018 05:58 3,8 C 3,3 C 0,6 C 93 % 15 lf 997,6 hPa 0,0 l/m 0 min 0 min 0 W/m 4,5 km/h (1 Bft) 93,62 %
31.03.2018 06:00 3,8 C 3,3 C 0,6 C 93 % 15 lf 997,6 hPa 0,0 l/m 0 min 0 min 0 W/m 4,5 km/h (1 Bft) 95,74 %
31.03.2018 06:02 3,8 C 3,3 C 0,6 C 93 % 15 lf 997,6 hPa 0,0 l/m 0 min 0 min 0 W/m 4,5 km/h (1 Bft) 95,83 %
31.03.2018 06:04 3,8 C 3,3 C 1,1 C 93 % 15 lf 997,6 hPa 0,0 l/m 0 min 0 min 0 W/m 6,8 km/h (2 Bft) 93,48 %
31.03.2018 06:08 3,7 C 2,8 C 1,1 C 93 % 15 lf 997,7 hPa 0,0 l/m 0 min 0 min 0 W/m 4,5 km/h (1 Bft) 96,08 %
31.03.2018 06:10 3,7 C 2,8 C 0,6 C 93 % 15 lf 997,7 hPa 0,0 l/m 0 min 0 min 0 W/m 4,5 km/h (1 Bft) 93,62 %
31.03.2018 06:12 3,7 C 2,8 C 0,6 C 93 % 15 lf 997,7 hPa 0,0 l/m 0 min 0 min 0 W/m 4,5 km/h (1 Bft) 93,48 %
31.03.2018 06:14 3,7 C 2,8 C 0,6 C 93 % 15 lf 997,7 hPa 0,0 l/m 0 min 0 min 0 W/m 4,5 km/h (1 Bft) 91,49 %
31.03.2018 06:16 3,6 C 2,8 C 0,6 C 93 % 15 lf 997,7 hPa 0,0 l/m 0 min 0 min 0 W/m 4,5 km/h (1 Bft) 95,74 %
31.03.2018 06:18 3,6 C 2,8 C 0,6 C 93 % 15 lf 997,7 hPa 0,0 l/m 0 min 0 min 0 W/m 2,3 km/h (1 Bft) 93,62 %
31.03.2018 06:20 3,6 C 2,8 C 1,1 C 93 % 15 lf 997,7 hPa 0,0 l/m 0 min 0 min 0 W/m 4,5 km/h (1 Bft) 91,49 %
31.03.2018 06:22 3,6 C 2,8 C 1,1 C 93 % 15 lf 997,7 hPa 0,0 l/m 0 min 0 min 0 W/m 4,5 km/h (1 Bft) 91,49 %
31.03.2018 06:24 3,6 C 2,8 C 1,1 C 93 % 15 lf 997,7 hPa 0,0 l/m 0 min 0 min 0 W/m 4,5 km/h (1 Bft) 91,84 %
31.03.2018 06:26 3,6 C 2,8 C 0,6 C 93 % 15 lf 997,8 hPa 0,0 l/m 0 min 0 min 0 W/m 0,0 km/h (0 Bft) 93,62 %
31.03.2018 06:28 3,6 C 2,8 C 0,6 C 93 % 15 lf 997,8 hPa 0,0 l/m 0 min 0 min 0 W/m 2,3 km/h (1 Bft) 93,62 %
31.03.2018 06:30 3,6 C 2,8 C 0,0 C 93 % 15 lf 997,8 hPa 0,0 l/m 0 min 0 min 0 W/m 2,3 km/h (1 Bft) 91,49 %
31.03.2018 06:32 3,5 C 2,8 C 0,0 C 93 % 15 lf 997,8 hPa 0,0 l/m 0 min 0 min 0 W/m 2,3 km/h (1 Bft) 91,49 %
31.03.2018 06:34 3,5 C 2,8 C 0,0 C 93 % 15 lf 997,7 hPa 0,0 l/m 0 min 0 min 0 W/m 2,3 km/h (1 Bft) 93,62 %
31.03.2018 06:36 3,5 C 2,8 C 0,0 C 93 % 15 lf 997,7 hPa 0,0 l/m 0 min 0 min 0 W/m 4,5 km/h (1 Bft) 93,48 %
31.03.2018 06:38 3,4 C 2,8 C 0,6 C 93 % 15 lf 997,7 hPa 0,0 l/m 0 min 0 min 0 W/m 4,5 km/h (1 Bft) 93,62 %
31.03.2018 06:40 3,4 C 2,8 C 0,6 C 93 % 15 lf 997,8 hPa 0,0 l/m 0 min 0 min 0 W/m 4,5 km/h (1 Bft) 93,62 %
31.03.2018 06:42 3,4 C 2,8 C 0,6 C 93 % 15 lf 997,8 hPa 0,0 l/m 0 min 0 min 0 W/m 4,5 km/h (1 Bft) 93,62 %
31.03.2018 06:44 3,4 C 2,8 C 0,6 C 93 % 15 lf 997,8 hPa 0,0 l/m 0 min 0 min 0 W/m 2,3 km/h (1 Bft) 93,62 %
31.03.2018 06:46 3,4 C 2,8 C 0,6 C 93 % 15 lf 997,8 hPa 0,0 l/m 0 min 0 min 0 W/m 2,3 km/h (1 Bft) 93,48 %
31.03.2018 06:48 3,4 C 2,8 C 0,0 C 94 % 15 lf 997,8 hPa 0,0 l/m 0 min 0 min 0 W/m 0,0 km/h (0 Bft) 93,62 %
31.03.2018 06:50 3,3 C 2,8 C 0,0 C 94 % 15 lf 997,8 hPa 0,0 l/m 0 min 0 min 0 W/m 0,0 km/h (0 Bft) 95,74 %
31.03.2018 06:52 3,3 C 2,8 C 0,0 C 94 % 15 lf 997,8 hPa 0,0 l/m 0 min 0 min 0 W/m 2,3 km/h (1 Bft) 95,74 %
31.03.2018 06:54 3,3 C 2,8 C 0,0 C 94 % 15 lf 997,7 hPa 0,0 l/m 0 min 0 min 0 W/m 2,3 km/h (1 Bft) 95,83 %
31.03.2018 06:56 3,3 C 2,8 C 0,0 C 94 % 15 lf 997,8 hPa 0,0 l/m 0 min 0 min 0 W/m 0,0 km/h (0 Bft) 97,87 %
31.03.2018 06:58 3,3 C 2,8 C 0,0 C 94 % 15 lf 997,7 hPa 0,0 l/m 0 min 0 min 0 W/m 2,3 km/h (1 Bft) 95,74 %
31.03.2018 07:00 3,3 C 2,8 C 0,0 C 94 % 15 lf 997,8 hPa 0,0 l/m 0 min 0 min 0 W/m 2,3 km/h (1 Bft) 97,83 %
31.03.2018 07:02 3,3 C 2,8 C 0,0 C 94 % 15 lf 997,7 hPa 0,0 l/m 0 min 0 min 0 W/m 2,3 km/h (1 Bft) 97,87 %
31.03.2018 07:04 3,3 C 2,8 C 0,0 C 94 % 15 lf 997,8 hPa 0,0 l/m 0 min 0 min 0 W/m 2,3 km/h (1 Bft) 100,00 %
31.03.2018 07:06 3,2 C 2,8 C 0,0 C 94 % 15 lf 997,9 hPa 0,0 l/m 0 min 0 min 0 W/m 2,3 km/h (1 Bft) 95,74 %
31.03.2018 07:08 3,2 C 2,8 C 0,0 C 94 % 15 lf 997,9 hPa 0,0 l/m 0 min 0 min 0 W/m 2,3 km/h (1 Bft) 100,00 %
31.03.2018 07:10 3,2 C 2,8 C -0,6 C 94 % 15 lf 998,0 hPa 0,0 l/m 0 min 0 min 0 W/m 2,3 km/h (1 Bft) 100,00 %
31.03.2018 07:12 3,2 C 2,8 C 0,0 C 94 % 15 lf 997,9 hPa 0,0 l/m 0 min 0 min 0 W/m 2,3 km/h (1 Bft) 100,00 %
31.03.2018 07:14 3,2 C 2,2 C 0,0 C 94 % 15 lf 997,9 hPa 0,0 l/m 0 min 0 min 1 W/m 2,3 km/h (1 Bft) 100,00 %
31.03.2018 07:16 3,2 C 2,2 C 0,0 C 94 % 15 lf 997,9 hPa 0,0 l/m 0 min 0 min 5 W/m 2,3 km/h (1 Bft) 100,00 %
31.03.2018 07:18 3,2 C 2,2 C -0,6 C 94 % 15 lf 997,9 hPa 0,0 l/m 0 min 0 min 5 W/m 2,3 km/h (1 Bft) 97,87 %
31.03.2018 07:20 3,1 C 2,8 C -0,6 C 94 % 15 lf 997,8 hPa 0,0 l/m 0 min 0 min 5 W/m 0,0 km/h (0 Bft) 100,00 %
31.03.2018 07:22 3,1 C 2,8 C -0,6 C 94 % 15 lf 997,8 hPa 0,0 l/m 0 min 0 min 6 W/m 2,3 km/h (1 Bft) 97,87 %
31.03.2018 07:24 3,1 C 2,8 C -0,6 C 94 % 15 lf 997,8 hPa 0,0 l/m 0 min 0 min 7 W/m 2,3 km/h (1 Bft) 100,00 %
31.03.2018 07:26 3,1 C 2,8 C -0,6 C 94 % 15 lf 997,9 hPa 0,0 l/m 0 min 0 min 7 W/m 2,3 km/h (1 Bft) 100,00 %
31.03.2018 07:28 3,1 C 2,8 C 0,0 C 94 % 15 lf 997,9 hPa 0,0 l/m 0 min 0 min 9 W/m 2,3 km/h (1 Bft) 100,00 %
31.03.2018 07:30 3,1 C 2,8 C 0,0 C 94 % 15 lf 997,9 hPa 0,0 l/m 0 min 0 min 9 W/m 2,3 km/h (1 Bft) 100,00 %
31.03.2018 07:32 3,1 C 2,8 C 0,0 C 94 % 15 lf 997,9 hPa 0,0 l/m 0 min 0 min 11 W/m 4,5 km/h (1 Bft) 97,87 %
31.03.2018 07:34 3,1 C 2,8 C 0,0 C 94 % 15 lf 997,9 hPa 0,0 l/m 0 min 0 min 11 W/m 2,3 km/h (1 Bft) 97,87 %
31.03.2018 07:36 3,1 C 2,8 C 0,0 C 94 % 15 lf 997,9 hPa 0,0 l/m 0 min 0 min 12 W/m 2,3 km/h (1 Bft) 100,00 %
31.03.2018 07:38 3,1 C 2,8 C 0,0 C 94 % 15 lf 997,9 hPa 0,0 l/m 0 min 0 min 12 W/m 2,3 km/h (1 Bft) 100,00 %
31.03.2018 07:40 3,1 C 2,8 C 0,0 C 94 % 15 lf 997,9 hPa 0,0 l/m 0 min 0 min 14 W/m 2,3 km/h (1 Bft) 100,00 %
31.03.2018 07:42 3,1 C 2,8 C 0,0 C 94 % 15 lf 997,8 hPa 0,0 l/m 0 min 0 min 16 W/m 2,3 km/h (1 Bft) 97,87 %
31.03.2018 07:44 3,0 C 2,8 C 0,0 C 94 % 15 lf 997,8 hPa 0,0 l/m 0 min 0 min 17 W/m 4,5 km/h (1 Bft) 100,00 %
31.03.2018 07:46 3,0 C 2,8 C 0,6 C 94 % 15 lf 997,8 hPa 0,0 l/m 0 min 0 min 18 W/m 4,5 km/h (1 Bft) 97,92 %
31.03.2018 07:48 3,0 C 2,8 C 0,6 C 94 % 15 lf 997,8 hPa 0,0 l/m 0 min 0 min 20 W/m 4,5 km/h (1 Bft) 97,87 %
31.03.2018 07:50 3,0 C 2,8 C 0,6 C 94 % 15 lf 997,7 hPa 0,0 l/m 0 min 0 min 21 W/m 2,3 km/h (1 Bft) 96,55 %
31.03.2018 07:52 3,0 C 2,8 C 0,6 C 94 % 15 lf 997,7 hPa 0,0 l/m 0 min 0 min 22 W/m 2,3 km/h (1 Bft) 97,14 %
31.03.2018 07:54 2,9 C 2,8 C 0,6 C 94 % 15 lf 997,7 hPa 0,0 l/m 0 min 0 min 24 W/m 2,3 km/h (1 Bft) 97,87 %
31.03.2018 07:56 2,9 C 2,8 C 0,6 C 94 % 15 lf 997,6 hPa 0,0 l/m 0 min 0 min 26 W/m 4,5 km/h (1 Bft) 97,87 %
31.03.2018 07:58 3,0 C 2,8 C 0,6 C 94 % 15 lf 997,6 hPa 0,0 l/m 0 min 0 min 28 W/m 2,3 km/h (1 Bft) 95,74 %
31.03.2018 08:00 3,0 C 2,8 C 1,1 C 95 % 15 lf 997,7 hPa 0,0 l/m 0 min 0 min 31 W/m 4,5 km/h (1 Bft) 97,83 %
31.03.2018 08:02 3,0 C 2,8 C 1,1 C 95 % 15 lf 997,7 hPa 0,0 l/m 0 min 0 min 33 W/m 2,3 km/h (1 Bft) 95,74 %
31.03.2018 08:04 3,0 C 3,3 C 1,1 C 95 % 15 lf 997,6 hPa 0,0 l/m 0 min 0 min 34 W/m 4,5 km/h (1 Bft) 95,74 %
31.03.2018 08:06 3,0 C 3,3 C 1,1 C 95 % 15 lf 997,6 hPa 0,0 l/m 0 min 0 min 33 W/m 2,3 km/h (1 Bft) 95,74 %
31.03.2018 08:08 3,0 C 3,3 C 1,1 C 95 % 15 lf 997,6 hPa 0,0 l/m 0 min 0 min 34 W/m 4,5 km/h (1 Bft) 97,87 %
31.03.2018 08:10 3,0 C 3,3 C 1,1 C 95 % 15 lf 997,6 hPa 0,0 l/m 0 min 0 min 35 W/m 4,5 km/h (1 Bft) 97,87 %
31.03.2018 08:12 3,0 C 3,3 C 0,6 C 95 % 15 lf 997,6 hPa 0,0 l/m 0 min 0 min 35 W/m 4,5 km/h (1 Bft) 95,65 %
31.03.2018 08:14 3,1 C 3,3 C 1,1 C 95 % 15 lf 997,7 hPa 0,0 l/m 0 min 0 min 38 W/m 4,5 km/h (1 Bft) 97,87 %
31.03.2018 08:16 3,1 C 3,3 C 1,1 C 95 % 15 lf 997,7 hPa 0,0 l/m 0 min 0 min 41 W/m 4,5 km/h (1 Bft) 95,74 %
31.03.2018 08:18 3,1 C 3,3 C 1,1 C 95 % 15 lf 997,8 hPa 0,0 l/m 0 min 0 min 44 W/m 4,5 km/h (1 Bft) 97,87 %
31.03.2018 08:20 3,1 C 3,3 C 1,1 C 95 % 15 lf 997,9 hPa 0,0 l/m 0 min 0 min 40 W/m 9,0 km/h (2 Bft) 96,61 %
31.03.2018 08:22 3,1 C 3,3 C 1,1 C 95 % 15 lf 997,9 hPa 0,0 l/m 0 min 0 min 43 W/m 4,5 km/h (1 Bft) 91,43 %
31.03.2018 08:24 3,1 C 3,3 C 1,1 C 95 % 15 lf 997,8 hPa 0,0 l/m 0 min 0 min 47 W/m 4,5 km/h (1 Bft) 98,11 %
31.03.2018 08:26 3,1 C 3,3 C 1,1 C 95 % 15 lf 997,8 hPa 0,0 l/m 0 min 0 min 59 W/m 4,5 km/h (1 Bft) 95,74 %
31.03.2018 08:28 3,1 C 3,3 C 0,6 C 95 % 15 lf 997,9 hPa 0,0 l/m 0 min 0 min 76 W/m 4,5 km/h (1 Bft) 93,62 %
31.03.2018 08:30 3,1 C 3,3 C 1,1 C 95 % 15 lf 997,9 hPa 0,0 l/m 0 min 0 min 79 W/m 2,3 km/h (1 Bft) 95,74 %
31.03.2018 08:32 3,1 C 3,3 C 1,1 C 95 % 15 lf 997,9 hPa 0,0 l/m 0 min 0 min 83 W/m 0,0 km/h (0 Bft) 95,65 %
31.03.2018 08:34 3,2 C 3,9 C 1,1 C 95 % 15 lf 997,9 hPa 0,0 l/m 0 min 0 min 74 W/m 0,0 km/h (0 Bft) 97,87 %
31.03.2018 08:36 3,2 C 3,9 C 1,7 C 95 % 15 lf 998,0 hPa 0,0 l/m 0 min 0 min 86 W/m 0,0 km/h (0 Bft) 97,87 %
31.03.2018 08:38 3,2 C 4,4 C 1,7 C 95 % 15 lf 998,0 hPa 0,0 l/m 0 min 0 min 100 W/m 0,0 km/h (0 Bft) 97,87 %
31.03.2018 08:40 3,2 C 5,6 C 1,7 C 95 % 15 lf 998,0 hPa 0,0 l/m 2 min 0 min 120 W/m 0,0 km/h (0 Bft) 95,74 %
31.03.2018 08:42 3,2 C 6,1 C 1,7 C 95 % 15 lf 997,9 hPa 0,0 l/m 2 min 0 min 117 W/m 6,8 km/h (2 Bft) 95,74 %
31.03.2018 08:44 3,3 C 6,7 C 1,7 C 95 % 15 lf 997,9 hPa 0,0 l/m 2 min 0 min 117 W/m 6,8 km/h (2 Bft) 97,83 %
31.03.2018 08:46 3,3 C 6,7 C 1,7 C 95 % 15 lf 997,9 hPa 0,0 l/m 0 min 0 min 107 W/m 9,0 km/h (2 Bft) 97,87 %
31.03.2018 08:48 3,4 C 6,7 C 1,7 C 95 % 15 lf 997,9 hPa 0,0 l/m 0 min 0 min 106 W/m 9,0 km/h (2 Bft) 95,74 %
31.03.2018 08:50 3,5 C 7,2 C 1,7 C 96 % 15 lf 997,9 hPa 0,0 l/m 2 min 0 min 138 W/m 9,0 km/h (2 Bft) 97,87 %
31.03.2018 08:52 3,6 C 7,8 C 2,2 C 96 % 15 lf 997,9 hPa 0,0 l/m 2 min 0 min 159 W/m 2,3 km/h (1 Bft) 95,74 %
31.03.2018 08:54 3,6 C 8,9 C 2,2 C 96 % 15 lf 997,9 hPa 0,0 l/m 2 min 0 min 164 W/m 4,5 km/h (1 Bft) 97,87 %
31.03.2018 08:56 3,7 C 8,9 C 2,2 C 96 % 15 lf 997,9 hPa 0,0 l/m 2 min 0 min 162 W/m 4,5 km/h (1 Bft) 97,83 %
31.03.2018 08:58 3,8 C 8,9 C 2,8 C 96 % 15 lf 997,9 hPa 0,0 l/m 2 min 0 min 159 W/m 4,5 km/h (1 Bft) 97,87 %
31.03.2018 09:00 3,8 C 10,0 C 2,8 C 96 % 15 lf 998,0 hPa 0,0 l/m 2 min 0 min 177 W/m 2,3 km/h (1 Bft) 97,87 %
31.03.2018 09:02 3,9 C 10,0 C 2,8 C 96 % 15 lf 998,0 hPa 0,0 l/m 2 min 0 min 171 W/m 9,0 km/h (2 Bft) 95,74 %
31.03.2018 09:04 4,1 C 10,0 C 2,8 C 96 % 15 lf 998,0 hPa 0,0 l/m 2 min 0 min 179 W/m 4,5 km/h (1 Bft) 97,87 %
31.03.2018 09:06 4,2 C 9,4 C 2,8 C 96 % 15 lf 998,0 hPa 0,0 l/m 2 min 0 min 176 W/m 9,0 km/h (2 Bft) 93,75 %
31.03.2018 09:08 4,2 C 9,4 C 2,8 C 96 % 15 lf 998,1 hPa 0,0 l/m 2 min 0 min 174 W/m 9,0 km/h (2 Bft) 95,65 %
31.03.2018 09:10 4,3 C 8,3 C 3,3 C 96 % 15 lf 998,1 hPa 0,0 l/m 2 min 0 min 169 W/m 9,0 km/h (2 Bft) 97,87 %
31.03.2018 09:12 4,4 C 8,3 C 3,3 C 96 % 15 lf 998,2 hPa 0,0 l/m 2 min 0 min 184 W/m 11,3 km/h (2 Bft) 89,36 %
31.03.2018 09:14 4,5 C 8,9 C 3,3 C 96 % 15 lf 998,1 hPa 0,0 l/m 2 min 0 min 196 W/m 9,0 km/h (2 Bft) 97,87 %
31.03.2018 09:16 4,6 C 9,4 C 3,3 C 96 % 15 lf 998,2 hPa 0,0 l/m 2 min 0 min 195 W/m 9,0 km/h (2 Bft) 95,74 %
31.03.2018 09:18 4,6 C 8,9 C 3,3 C 96 % 15 lf 998,2 hPa 0,0 l/m 2 min 0 min 198 W/m 11,3 km/h (2 Bft) 93,33 %
31.03.2018 09:20 4,7 C 9,4 C 3,3 C 96 % 15 lf 998,2 hPa 0,0 l/m 2 min 0 min 187 W/m 9,0 km/h (2 Bft) 95,74 %
31.03.2018 09:22 4,7 C 8,9 C 3,3 C 96 % 15 lf 998,2 hPa 0,0 l/m 2 min 0 min 178 W/m 11,3 km/h (2 Bft) 89,36 %
31.03.2018 09:24 4,8 C 8,9 C 3,3 C 96 % 15 lf 998,2 hPa 0,0 l/m 2 min 0 min 191 W/m 9,0 km/h (2 Bft) 96,00 %
31.03.2018 09:26 4,8 C 8,9 C 3,9 C 96 % 15 lf 998,2 hPa 0,0 l/m 2 min 0 min 188 W/m 11,3 km/h (2 Bft) 93,62 %
31.03.2018 09:28 4,9 C 8,9 C 3,3 C 96 % 15 lf 998,2 hPa 0,0 l/m 2 min 0 min 201 W/m 6,8 km/h (2 Bft) 91,49 %
31.03.2018 09:30 4,9 C 8,9 C 3,3 C 96 % 15 lf 998,2 hPa 0,0 l/m 2 min 0 min 205 W/m 6,8 km/h (2 Bft) 93,62 %
31.03.2018 09:32 5,0 C 9,4 C 3,9 C 96 % 14 lf 998,2 hPa 0,0 l/m 2 min 0 min 227 W/m 6,8 km/h (2 Bft) 95,74 %
31.03.2018 09:34 5,0 C 9,4 C 3,9 C 96 % 14 lf 998,2 hPa 0,0 l/m 2 min 0 min 247 W/m 9,0 km/h (2 Bft) 95,74 %
31.03.2018 09:36 5,1 C 10,6 C 3,9 C 96 % 14 lf 998,2 hPa 0,0 l/m 2 min 0 min 245 W/m 6,8 km/h (2 Bft) 91,49 %
31.03.2018 09:38 5,2 C 10,0 C 3,9 C 96 % 13 lf 998,3 hPa 0,0 l/m 2 min 0 min 257 W/m 11,3 km/h (2 Bft) 95,74 %
31.03.2018 09:40 5,2 C 10,0 C 4,4 C 96 % 10 lf 998,3 hPa 0,0 l/m 2 min 0 min 262 W/m 13,5 km/h (3 Bft) 95,74 %
31.03.2018 09:42 5,3 C 10,0 C 4,4 C 96 % 6 lf 998,3 hPa 0,0 l/m 2 min 0 min 266 W/m 13,5 km/h (3 Bft) 95,65 %
31.03.2018 09:44 5,4 C 10,6 C 5,0 C 96 % 3 lf 998,4 hPa 0,0 l/m 2 min 0 min 282 W/m 6,8 km/h (2 Bft) 93,62 %
31.03.2018 09:46 5,4 C 11,7 C 5,0 C 96 % 2 lf 998,4 hPa 0,0 l/m 2 min 0 min 283 W/m 6,8 km/h (2 Bft) 89,36 %
31.03.2018 09:48 5,6 C 11,7 C 5,6 C 96 % 0 lf 998,4 hPa 0,0 l/m 2 min 0 min 276 W/m 13,5 km/h (3 Bft) 95,74 %
31.03.2018 09:50 5,7 C 11,7 C 5,6 C 95 % 0 lf 998,3 hPa 0,0 l/m 2 min 0 min 281 W/m 9,0 km/h (2 Bft) 97,87 %
31.03.2018 09:52 5,8 C 12,8 C 6,1 C 95 % 0 lf 998,4 hPa 0,0 l/m 2 min 0 min 277 W/m 11,3 km/h (2 Bft) 93,62 %
31.03.2018 09:54 5,9 C 13,9 C 6,1 C 95 % 0 lf 998,3 hPa 0,0 l/m 2 min 0 min 278 W/m 4,5 km/h (1 Bft) 97,14 %
31.03.2018 09:56 6,1 C 12,8 C 6,1 C 95 % 0 lf 998,4 hPa 0,0 l/m 2 min 0 min 250 W/m 9,0 km/h (2 Bft) 97,87 %
31.03.2018 09:58 6,1 C 12,8 C 6,7 C 95 % 0 lf 998,4 hPa 0,0 l/m 2 min 0 min 270 W/m 11,3 km/h (2 Bft) 97,83 %
31.03.2018 10:00 6,2 C 12,8 C 7,2 C 95 % 0 lf 998,3 hPa 0,0 l/m 2 min 0 min 279 W/m 11,3 km/h (2 Bft) 95,74 %
31.03.2018 10:02 6,4 C 12,2 C 7,2 C 95 % 0 lf 998,4 hPa 0,0 l/m 2 min 0 min 318 W/m 11,3 km/h (2 Bft) 95,74 %
31.03.2018 10:04 6,5 C 13,3 C 7,8 C 95 % 0 lf 998,4 hPa 0,0 l/m 2 min 0 min 373 W/m 9,0 km/h (2 Bft) 93,62 %
31.03.2018 10:06 6,6 C 14,4 C 7,8 C 94 % 0 lf 998,4 hPa 0,0 l/m 2 min 0 min 357 W/m 11,3 km/h (2 Bft) 95,74 %
31.03.2018 10:08 6,8 C 15,0 C 8,3 C 94 % 0 lf 998,4 hPa 0,0 l/m 2 min 0 min 349 W/m 13,5 km/h (3 Bft) 97,96 %
31.03.2018 10:10 6,9 C 15,0 C 8,3 C 94 % 0 lf 998,4 hPa 0,0 l/m 2 min 0 min 348 W/m 13,5 km/h (3 Bft) 95,74 %
31.03.2018 10:12 7,1 C 14,4 C 8,3 C 93 % 0 lf 998,5 hPa 0,0 l/m 2 min 0 min 343 W/m 13,5 km/h (3 Bft) 95,74 %
31.03.2018 10:14 7,2 C 15,0 C 8,3 C 93 % 0 lf 998,5 hPa 0,0 l/m 2 min 0 min 348 W/m 15,8 km/h (3 Bft) 91,49 %
31.03.2018 10:16 7,3 C 15,0 C 8,3 C 93 % 0 lf 998,5 hPa 0,0 l/m 2 min 0 min 380 W/m 15,8 km/h (3 Bft) 93,62 %
31.03.2018 10:18 7,5 C 15,6 C 8,9 C 92 % 0 lf 998,5 hPa 0,0 l/m 2 min 0 min 402 W/m 15,8 km/h (3 Bft) 95,74 %
31.03.2018 10:20 7,7 C 15,6 C 9,4 C 92 % 0 lf 998,6 hPa 0,0 l/m 2 min 0 min 396 W/m 11,3 km/h (2 Bft) 91,38 %
31.03.2018 10:22 7,8 C 16,1 C 9,4 C 91 % 0 lf 998,6 hPa 0,0 l/m 2 min 0 min 394 W/m 18,0 km/h (3 Bft) 97,14 %
31.03.2018 10:24 7,9 C 16,7 C 10,0 C 90 % 0 lf 998,5 hPa 0,0 l/m 2 min 0 min 391 W/m 15,8 km/h (3 Bft) 95,74 %
31.03.2018 10:26 8,1 C 16,7 C 10,0 C 90 % 0 lf 998,6 hPa 0,0 l/m 2 min 0 min 408 W/m 18,0 km/h (3 Bft) 93,62 %
31.03.2018 10:28 8,2 C 18,9 C 10,6 C 89 % 0 lf 998,5 hPa 0,0 l/m 2 min 0 min 415 W/m 18,0 km/h (3 Bft) 97,87 %
31.03.2018 10:30 8,4 C 18,3 C 10,6 C 89 % 0 lf 998,6 hPa 0,0 l/m 2 min 0 min 415 W/m 18,0 km/h (3 Bft) 97,87 %
31.03.2018 10:32 8,5 C 13,9 C 11,1 C 88 % 0 lf 998,6 hPa 0,0 l/m 2 min 0 min 418 W/m 18,0 km/h (3 Bft) 97,83 %
31.03.2018 10:34 8,6 C 15,0 C 11,7 C 87 % 0 lf 998,6 hPa 0,0 l/m 2 min 0 min 415 W/m 18,0 km/h (3 Bft) 91,49 %
31.03.2018 10:36 8,7 C 16,1 C 12,8 C 85 % 0 lf 998,6 hPa 0,0 l/m 2 min 0 min 436 W/m 15,8 km/h (3 Bft) 95,74 %
31.03.2018 10:38 8,8 C 16,1 C 13,9 C 85 % 0 lf 998,6 hPa 0,0 l/m 2 min 0 min 446 W/m 13,5 km/h (3 Bft) 95,74 %
31.03.2018 10:40 8,9 C 16,1 C 14,4 C 84 % 0 lf 998,6 hPa 0,0 l/m 2 min 0 min 448 W/m 13,5 km/h (3 Bft) 95,74 %
31.03.2018 10:42 9,1 C 15,6 C 13,9 C 83 % 0 lf 998,5 hPa 0,0 l/m 2 min 0 min 453 W/m 20,3 km/h (4 Bft) 100,00 %
31.03.2018 10:44 9,2 C 15,6 C 13,9 C 82 % 0 lf 998,6 hPa 0,0 l/m 2 min 0 min 457 W/m 13,5 km/h (3 Bft) 100,00 %
31.03.2018 10:46 9,3 C 16,1 C 13,9 C 82 % 0 lf 998,6 hPa 0,0 l/m 2 min 0 min 431 W/m 13,5 km/h (3 Bft) 97,87 %
31.03.2018 10:48 9,4 C 17,8 C 13,9 C 82 % 0 lf 998,6 hPa 0,0 l/m 2 min 0 min 468 W/m 20,3 km/h (4 Bft) 100,00 %
31.03.2018 10:50 9,5 C 18,3 C 13,3 C 81 % 0 lf 998,5 hPa 0,0 l/m 2 min 0 min 472 W/m 20,3 km/h (4 Bft) 100,00 %
31.03.2018 10:52 9,6 C 18,3 C 12,8 C 81 % 0 lf 998,5 hPa 0,0 l/m 2 min 0 min 476 W/m 13,5 km/h (3 Bft) 100,00 %
31.03.2018 10:54 9,7 C 16,7 C 12,2 C 80 % 0 lf 998,5 hPa 0,0 l/m 2 min 0 min 480 W/m 13,5 km/h (3 Bft) 94,34 %
31.03.2018 10:56 9,8 C 16,7 C 11,7 C 79 % 0 lf 998,5 hPa 0,0 l/m 2 min 0 min 481 W/m 13,5 km/h (3 Bft) 97,87 %
31.03.2018 10:58 9,9 C 16,7 C 11,7 C 79 % 0 lf 998,5 hPa 0,0 l/m 2 min 0 min 483 W/m 13,5 km/h (3 Bft) 100,00 %
31.03.2018 11:00 10,0 C 16,7 C 12,2 C 78 % 0 lf 998,5 hPa 0,0 l/m 2 min 0 min 485 W/m 13,5 km/h (3 Bft) 100,00 %
31.03.2018 11:02 10,1 C 17,8 C 12,8 C 78 % 0 lf 998,5 hPa 0,0 l/m 2 min 0 min 489 W/m 13,5 km/h (3 Bft) 100,00 %
31.03.2018 11:04 10,3 C 18,3 C 13,9 C 79 % 0 lf 998,5 hPa 0,0 l/m 2 min 0 min 491 W/m 9,0 km/h (2 Bft) 100,00 %
31.03.2018 11:06 10,4 C 18,3 C 14,4 C 78 % 0 lf 998,5 hPa 0,0 l/m 2 min 0 min 494 W/m 13,5 km/h (3 Bft) 100,00 %
31.03.2018 11:08 10,5 C 18,9 C 15,6 C 78 % 0 lf 998,6 hPa 0,0 l/m 2 min 0 min 498 W/m 18,0 km/h (3 Bft) 100,00 %
31.03.2018 11:10 10,6 C 18,9 C 15,6 C 78 % 0 lf 998,5 hPa 0,0 l/m 2 min 0 min 501 W/m 9,0 km/h (2 Bft) 33,33 %
31.03.2018 11:12 10,7 C 18,9 C 15,6 C 77 % 0 lf 998,5 hPa 0,0 l/m 2 min 0 min 507 W/m 11,3 km/h (2 Bft) 100,00 %
31.03.2018 11:14 10,8 C 16,1 C 17,2 C 75 % 0 lf 998,6 hPa 0,0 l/m 2 min 0 min 508 W/m 18,0 km/h (3 Bft) 97,87 %
31.03.2018 11:16 10,9 C 17,8 C 17,2 C 74 % 0 lf 998,5 hPa 0,0 l/m 2 min 0 min 513 W/m 13,5 km/h (3 Bft) 100,00 %
31.03.2018 11:18 11,0 C 18,9 C 17,8 C 75 % 0 lf 998,4 hPa 0,0 l/m 2 min 0 min 513 W/m 15,8 km/h (3 Bft) 100,00 %
31.03.2018 11:20 11,1 C 18,9 C 17,8 C 74 % 0 lf 998,5 hPa 0,0 l/m 2 min 0 min 515 W/m 15,8 km/h (3 Bft) 100,00 %
31.03.2018 11:22 11,2 C 18,3 C 17,2 C 74 % 0 lf 998,5 hPa 0,0 l/m 2 min 0 min 519 W/m 9,0 km/h (2 Bft) 100,00 %
31.03.2018 11:24 11,2 C 18,3 C 17,2 C 73 % 0 lf 998,5 hPa 0,0 l/m 2 min 0 min 519 W/m 15,8 km/h (3 Bft) 100,00 %
31.03.2018 11:26 11,3 C 18,3 C 17,8 C 73 % 0 lf 998,5 hPa 0,0 l/m 2 min 0 min 516 W/m 13,5 km/h (3 Bft) 100,00 %
31.03.2018 11:28 11,4 C 18,3 C 17,8 C 71 % 0 lf 998,4 hPa 0,0 l/m 2 min 0 min 516 W/m 13,5 km/h (3 Bft) 95,74 %
31.03.2018 11:30 11,5 C 19,4 C 17,8 C 72 % 0 lf 998,4 hPa 0,0 l/m 2 min 0 min 528 W/m 24,8 km/h (4 Bft) 97,87 %
31.03.2018 11:32 11,6 C 18,9 C 17,8 C 70 % 0 lf 998,4 hPa 0,0 l/m 2 min 0 min 535 W/m 15,8 km/h (3 Bft) 97,87 %
31.03.2018 11:34 11,7 C 20,0 C 17,8 C 70 % 0 lf 998,5 hPa 0,0 l/m 2 min 0 min 539 W/m 9,0 km/h (2 Bft) 97,87 %
31.03.2018 11:36 11,8 C 18,9 C 17,8 C 70 % 0 lf 998,5 hPa 0,0 l/m 2 min 0 min 542 W/m 11,3 km/h (2 Bft) 100,00 %
31.03.2018 11:38 11,8 C 18,9 C 17,8 C 69 % 0 lf 998,5 hPa 0,0 l/m 2 min 0 min 540 W/m 18,0 km/h (3 Bft) 95,65 %
31.03.2018 11:40 11,9 C 18,9 C 17,2 C 68 % 0 lf 998,5 hPa 0,0 l/m 2 min 0 min 540 W/m 13,5 km/h (3 Bft) 97,87 %
31.03.2018 11:42 12,0 C 18,3 C 17,2 C 67 % 0 lf 998,5 hPa 0,0 l/m 2 min 0 min 533 W/m 13,5 km/h (3 Bft) 95,74 %
31.03.2018 11:44 12,1 C 18,9 C 17,8 C 67 % 0 lf 998,4 hPa 0,0 l/m 2 min 0 min 547 W/m 18,0 km/h (3 Bft) 97,87 %
31.03.2018 11:46 12,2 C 19,4 C 18,3 C 67 % 0 lf 998,4 hPa 0,0 l/m 2 min 0 min 551 W/m 9,0 km/h (2 Bft) 97,87 %
31.03.2018 11:48 12,2 C 20,0 C 18,3 C 68 % 0 lf 998,5 hPa 0,0 l/m 2 min 0 min 560 W/m 18,0 km/h (3 Bft) 95,65 %
31.03.2018 11:53 12,3 C 20,0 C 18,3 C 68 % 0 lf 998,4 hPa 0,0 l/m 5 min 0 min 561 W/m 9,0 km/h (2 Bft) 4,76 %
31.03.2018 11:54 12,3 C 20,0 C 18,3 C 68 % 0 lf 998,4 hPa 0,0 l/m 1 min 0 min 561 W/m 4,5 km/h (1 Bft) 4,76 %
31.03.2018 11:56 12,4 C 20,6 C 17,2 C 67 % 0 lf 998,4 hPa 0,0 l/m 2 min 0 min 572 W/m 11,3 km/h (2 Bft) 100,00 %
31.03.2018 11:58 12,5 C 20,6 C 17,2 C 66 % 0 lf 998,5 hPa 0,0 l/m 2 min 0 min 610 W/m 11,3 km/h (2 Bft) 97,87 %
31.03.2018 12:00 12,6 C 19,4 C 17,8 C 66 % 0 lf 998,5 hPa 0,0 l/m 2 min 0 min 630 W/m 11,3 km/h (2 Bft) 95,65 %
31.03.2018 12:02 12,6 C 18,3 C 17,8 C 66 % 0 lf 998,5 hPa 0,0 l/m 2 min 0 min 631 W/m 11,3 km/h (2 Bft) 95,74 %
31.03.2018 12:04 12,7 C 18,3 C 16,1 C 65 % 0 lf 998,6 hPa 0,0 l/m 2 min 0 min 631 W/m 4,5 km/h (1 Bft) 95,74 %
31.03.2018 12:08 12,8 C 20,6 C 16,7 C 67 % 0 lf 998,6 hPa 0,0 l/m 4 min 0 min 493 W/m 13,5 km/h (3 Bft) 97,67 %
31.03.2018 12:10 12,8 C 21,1 C 16,7 C 65 % 0 lf 998,6 hPa 0,0 l/m 2 min 0 min 333 W/m 11,3 km/h (2 Bft) 97,87 %
31.03.2018 12:12 12,8 C 20,0 C 17,2 C 66 % 0 lf 998,6 hPa 0,0 l/m 2 min 0 min 522 W/m 11,3 km/h (2 Bft) 93,62 %
31.03.2018 12:14 12,8 C 18,3 C 16,1 C 66 % 0 lf 998,6 hPa 0,0 l/m 0 min 0 min 161 W/m 6,8 km/h (2 Bft) 97,87 %
31.03.2018 12:16 12,8 C 17,8 C 14,4 C 66 % 0 lf 998,6 hPa 0,0 l/m 0 min 0 min 137 W/m 6,8 km/h (2 Bft) 95,65 %
31.03.2018 12:18 12,8 C 16,1 C 13,3 C 65 % 0 lf 998,6 hPa 0,0 l/m 0 min 0 min 132 W/m 9,0 km/h (2 Bft) 97,87 %
31.03.2018 12:20 12,7 C 15,6 C 12,8 C 63 % 0 lf 998,6 hPa 0,0 l/m 0 min 0 min 125 W/m 6,8 km/h (2 Bft) 93,62 %
31.03.2018 12:22 12,7 C 15,6 C 12,2 C 63 % 0 lf 998,6 hPa 0,0 l/m 0 min 0 min 116 W/m 2,3 km/h (1 Bft) 93,62 %
31.03.2018 12:24 12,7 C 15,0 C 11,7 C 63 % 0 lf 998,6 hPa 0,0 l/m 0 min 0 min 119 W/m 9,0 km/h (2 Bft) 93,62 %
31.03.2018 12:26 12,6 C 14,4 C 11,1 C 63 % 0 lf 998,6 hPa 0,0 l/m 0 min 0 min 120 W/m 9,0 km/h (2 Bft) 95,74 %
31.03.2018 12:28 12,4 C 15,6 C 11,7 C 63 % 0 lf 998,6 hPa 0,0 l/m 0 min 0 min 132 W/m 4,5 km/h (1 Bft) 97,83 %
31.03.2018 12:30 12,4 C 17,8 C 12,8 C 64 % 0 lf 998,6 hPa 0,0 l/m 0 min 0 min 176 W/m 4,5 km/h (1 Bft) 95,74 %
31.03.2018 12:32 12,4 C 16,7 C 13,3 C 64 % 0 lf 998,6 hPa 0,0 l/m 2 min 0 min 654 W/m 6,8 km/h (2 Bft) 95,83 %
31.03.2018 12:34 12,3 C 13,9 C 12,2 C 63 % 0 lf 998,6 hPa 0,0 l/m 0 min 0 min 220 W/m 6,8 km/h (2 Bft) 93,62 %
31.03.2018 12:36 12,3 C 16,1 C 12,8 C 64 % 0 lf 998,6 hPa 0,0 l/m 0 min 0 min 161 W/m 4,5 km/h (1 Bft) 95,74 %
31.03.2018 12:38 12,3 C 18,3 C 13,3 C 64 % 0 lf 998,6 hPa 0,0 l/m 2 min 0 min 527 W/m 9,0 km/h (2 Bft) 93,62 %
31.03.2018 12:40 12,2 C 19,4 C 14,4 C 65 % 0 lf 998,6 hPa 0,0 l/m 2 min 0 min 390 W/m 9,0 km/h (2 Bft) 95,65 %
31.03.2018 12:42 12,3 C 20,6 C 16,1 C 66 % 0 lf 998,6 hPa 0,0 l/m 2 min 0 min 559 W/m 6,8 km/h (2 Bft) 95,74 %
31.03.2018 12:44 12,4 C 20,0 C 16,1 C 66 % 0 lf 998,5 hPa 0,0 l/m 2 min 0 min 528 W/m 6,8 km/h (2 Bft) 93,62 %
31.03.2018 12:46 12,4 C 19,4 C 16,7 C 66 % 0 lf 998,6 hPa 0,0 l/m 2 min 0 min 559 W/m 4,5 km/h (1 Bft) 95,74 %
31.03.2018 12:48 12,5 C 20,0 C 16,7 C 65 % 0 lf 998,6 hPa 0,0 l/m 2 min 0 min 582 W/m 11,3 km/h (2 Bft) 93,62 %
31.03.2018 12:50 12,6 C 20,0 C 16,1 C 64 % 0 lf 998,6 hPa 0,0 l/m 2 min 0 min 499 W/m 18,0 km/h (3 Bft) 93,62 %
31.03.2018 12:52 12,6 C 20,6 C 16,7 C 65 % 0 lf 998,6 hPa 0,0 l/m 2 min 0 min 473 W/m 9,0 km/h (2 Bft) 95,65 %
31.03.2018 12:54 12,7 C 19,4 C 16,1 C 64 % 0 lf 998,6 hPa 0,0 l/m 2 min 0 min 534 W/m 6,8 km/h (2 Bft) 93,62 %
31.03.2018 12:56 12,8 C 16,7 C 15,0 C 62 % 0 lf 998,6 hPa 0,0 l/m 0 min 0 min 278 W/m 9,0 km/h (2 Bft) 95,74 %
31.03.2018 12:58 12,8 C 15,6 C 13,9 C 63 % 0 lf 998,5 hPa 0,0 l/m 0 min 0 min 162 W/m 13,5 km/h (3 Bft) 95,74 %
31.03.2018 13:00 12,8 C 15,6 C 13,3 C 63 % 0 lf 998,6 hPa 0,0 l/m 0 min 0 min 158 W/m 9,0 km/h (2 Bft) 95,74 %
31.03.2018 13:02 12,8 C 15,6 C 12,8 C 63 % 0 lf 998,7 hPa 0,0 l/m 0 min 0 min 170 W/m 13,5 km/h (3 Bft) 95,74 %
31.03.2018 13:04 12,7 C 17,8 C 13,3 C 63 % 0 lf 998,6 hPa 0,0 l/m 2 min 0 min 610 W/m 15,8 km/h (3 Bft) 95,65 %
31.03.2018 13:06 12,8 C 20,6 C 13,9 C 64 % 0 lf 998,6 hPa 0,0 l/m 2 min 0 min 711 W/m 13,5 km/h (3 Bft) 95,74 %
31.03.2018 13:08 12,8 C 18,9 C 14,4 C 63 % 0 lf 998,7 hPa 0,0 l/m 2 min 0 min 700 W/m 11,3 km/h (2 Bft) 95,74 %
31.03.2018 13:10 12,9 C 19,4 C 14,4 C 63 % 0 lf 998,7 hPa 0,0 l/m 2 min 0 min 484 W/m 11,3 km/h (2 Bft) 97,87 %
31.03.2018 13:12 12,9 C 17,8 C 14,4 C 63 % 0 lf 998,7 hPa 0,0 l/m 2 min 0 min 466 W/m 20,3 km/h (4 Bft) 97,87 %
31.03.2018 13:14 12,9 C 19,4 C 14,4 C 64 % 0 lf 998,7 hPa 0,0 l/m 2 min 0 min 514 W/m 18,0 km/h (3 Bft) 97,87 %
31.03.2018 13:16 13,0 C 20,6 C 14,4 C 64 % 0 lf 998,7 hPa 0,0 l/m 2 min 0 min 595 W/m 18,0 km/h (3 Bft) 97,83 %
31.03.2018 13:18 13,0 C 17,8 C 13,9 C 63 % 0 lf 998,7 hPa 0,0 l/m 2 min 0 min 534 W/m 15,8 km/h (3 Bft) 97,87 %
31.03.2018 13:20 12,9 C 16,1 C 13,3 C 63 % 0 lf 998,7 hPa 0,0 l/m 0 min 0 min 186 W/m 15,8 km/h (3 Bft) 95,74 %
31.03.2018 13:22 12,9 C 15,0 C 12,8 C 63 % 0 lf 998,7 hPa 0,0 l/m 0 min 0 min 199 W/m 18,0 km/h (3 Bft) 97,87 %
31.03.2018 13:24 12,9 C 15,6 C 12,8 C 63 % 0 lf 998,7 hPa 0,0 l/m 0 min 0 min 245 W/m 15,8 km/h (3 Bft) 97,87 %
31.03.2018 13:26 12,9 C 17,2 C 13,3 C 63 % 0 lf 998,7 hPa 0,0 l/m 0 min 0 min 260 W/m 15,8 km/h (3 Bft) 95,65 %
31.03.2018 13:28 12,9 C 16,7 C 12,8 C 64 % 0 lf 998,7 hPa 0,0 l/m 0 min 0 min 241 W/m 15,8 km/h (3 Bft) 97,87 %
31.03.2018 13:30 12,9 C 20,0 C 13,3 C 64 % 0 lf 998,8 hPa 0,0 l/m 0 min 0 min 324 W/m 9,0 km/h (2 Bft) 97,87 %
31.03.2018 13:32 12,9 C 21,7 C 13,3 C 65 % 0 lf 998,8 hPa 0,0 l/m 2 min 0 min 715 W/m 13,5 km/h (3 Bft) 97,87 %
31.03.2018 13:34 13,1 C 21,1 C 13,3 C 63 % 0 lf 998,7 hPa 0,0 l/m 2 min 0 min 709 W/m 29,3 km/h (5 Bft) 100,00 %
31.03.2018 13:36 13,1 C 21,1 C 12,8 C 61 % 0 lf 998,6 hPa 0,0 l/m 2 min 0 min 696 W/m 27,0 km/h (4 Bft) 97,87 %
31.03.2018 13:38 13,1 C 21,7 C 12,8 C 62 % 0 lf 998,7 hPa 0,0 l/m 2 min 0 min 691 W/m 27,0 km/h (4 Bft) 95,65 %
31.03.2018 13:40 13,2 C 22,2 C 12,8 C 63 % 0 lf 998,7 hPa 0,0 l/m 2 min 0 min 682 W/m 20,3 km/h (4 Bft) 93,62 %
31.03.2018 13:42 13,2 C 23,3 C 12,8 C 63 % 0 lf 998,7 hPa 0,0 l/m 2 min 0 min 665 W/m 18,0 km/h (3 Bft) 97,87 %
31.03.2018 13:44 13,3 C 23,3 C 13,3 C 63 % 0 lf 998,6 hPa 0,0 l/m 2 min 0 min 654 W/m 11,3 km/h (2 Bft) 97,87 %
31.03.2018 13:46 13,4 C 25,0 C 12,8 C 63 % 0 lf 998,7 hPa 0,0 l/m 2 min 0 min 649 W/m 13,5 km/h (3 Bft) 95,74 %
31.03.2018 13:48 13,5 C 25,0 C 12,8 C 62 % 0 lf 998,6 hPa 0,0 l/m 2 min 0 min 654 W/m 15,8 km/h (3 Bft) 97,87 %
31.03.2018 13:50 13,6 C 24,4 C 12,8 C 60 % 0 lf 998,6 hPa 0,0 l/m 2 min 0 min 666 W/m 20,3 km/h (4 Bft) 95,65 %
31.03.2018 13:52 13,6 C 23,9 C 12,8 C 60 % 0 lf 998,6 hPa 0,0 l/m 2 min 0 min 697 W/m 15,8 km/h (3 Bft) 93,62 %
31.03.2018 13:54 13,7 C 24,4 C 13,3 C 60 % 0 lf 998,6 hPa 0,0 l/m 2 min 0 min 718 W/m 15,8 km/h (3 Bft) 95,74 %
31.03.2018 13:56 13,8 C 25,6 C 13,9 C 61 % 0 lf 998,6 hPa 0,0 l/m 2 min 0 min 733 W/m 15,8 km/h (3 Bft) 93,62 %
31.03.2018 13:58 13,9 C 25,6 C 14,4 C 62 % 0 lf 998,6 hPa 0,0 l/m 2 min 0 min 745 W/m 18,0 km/h (3 Bft) 95,74 %
31.03.2018 14:00 14,0 C 24,4 C 14,4 C 61 % 0 lf 998,7 hPa 0,0 l/m 2 min 0 min 759 W/m 18,0 km/h (3 Bft) 95,74 %
31.03.2018 14:02 14,2 C 23,9 C 14,4 C 61 % 0 lf 998,7 hPa 0,0 l/m 2 min 0 min 775 W/m 15,8 km/h (3 Bft) 93,48 %
31.03.2018 14:04 14,2 C 24,4 C 14,4 C 60 % 0 lf 998,7 hPa 0,0 l/m 2 min 0 min 793 W/m 13,5 km/h (3 Bft) 97,87 %
31.03.2018 14:06 14,2 C 22,8 C 15,0 C 61 % 0 lf 998,7 hPa 0,0 l/m 2 min 0 min 637 W/m 15,8 km/h (3 Bft) 91,49 %
31.03.2018 14:08 14,2 C 22,8 C 15,0 C 60 % 0 lf 998,7 hPa 0,0 l/m 0 min 0 min 229 W/m 18,0 km/h (3 Bft) 93,62 %
31.03.2018 14:10 14,2 C 23,9 C 14,4 C 58 % 0 lf 998,7 hPa 0,0 l/m 2 min 0 min 765 W/m 18,0 km/h (3 Bft) 93,62 %
31.03.2018 14:12 14,2 C 24,4 C 15,0 C 58 % 0 lf 998,7 hPa 0,0 l/m 2 min 0 min 794 W/m 15,8 km/h (3 Bft) 95,74 %
31.03.2018 14:14 14,3 C 25,6 C 15,0 C 59 % 0 lf 998,7 hPa 0,0 l/m 2 min 0 min 766 W/m 15,8 km/h (3 Bft) 95,65 %
31.03.2018 14:16 14,3 C 26,1 C 15,6 C 58 % 0 lf 998,6 hPa 0,0 l/m 2 min 0 min 795 W/m 18,0 km/h (3 Bft) 95,74 %
31.03.2018 14:18 14,4 C 25,6 C 15,0 C 58 % 0 lf 998,6 hPa 0,0 l/m 2 min 0 min 781 W/m 22,5 km/h (4 Bft) 95,74 %
31.03.2018 14:20 14,5 C 25,0 C 15,0 C 59 % 0 lf 998,6 hPa 0,0 l/m 2 min 0 min 754 W/m 15,8 km/h (3 Bft) 97,87 %
31.03.2018 14:22 14,6 C 25,6 C 15,0 C 59 % 0 lf 998,7 hPa 0,0 l/m 2 min 0 min 733 W/m 11,3 km/h (2 Bft) 95,74 %
31.03.2018 14:24 14,7 C 25,6 C 15,0 C 59 % 0 lf 998,7 hPa 0,0 l/m 2 min 0 min 737 W/m 15,8 km/h (3 Bft) 100,00 %
31.03.2018 14:26 14,8 C 25,0 C 15,0 C 60 % 0 lf 998,6 hPa 0,0 l/m 2 min 0 min 554 W/m 11,3 km/h (2 Bft) 100,00 %
31.03.2018 14:28 14,8 C 23,9 C 15,0 C 58 % 0 lf 998,6 hPa 0,0 l/m 2 min 0 min 711 W/m 18,0 km/h (3 Bft) 95,74 %
31.03.2018 14:30 14,9 C 24,4 C 15,0 C 59 % 0 lf 998,6 hPa 0,0 l/m 2 min 0 min 744 W/m 18,0 km/h (3 Bft) 95,74 %
31.03.2018 14:32 14,9 C 23,9 C 15,0 C 57 % 0 lf 998,6 hPa 0,0 l/m 2 min 0 min 674 W/m 20,3 km/h (4 Bft) 97,87 %
31.03.2018 14:34 14,9 C 22,2 C 15,0 C 58 % 0 lf 998,6 hPa 0,0 l/m 2 min 0 min 527 W/m 13,5 km/h (3 Bft) 100,00 %
31.03.2018 14:36 14,9 C 21,7 C 14,4 C 57 % 0 lf 998,6 hPa 0,0 l/m 0 min 0 min 258 W/m 11,3 km/h (2 Bft) 100,00 %
31.03.2018 14:38 14,8 C 20,6 C 15,0 C 57 % 0 lf 998,6 hPa 0,0 l/m 0 min 0 min 294 W/m 11,3 km/h (2 Bft) 97,83 %
31.03.2018 14:40 14,8 C 19,4 C 14,4 C 58 % 0 lf 998,7 hPa 0,0 l/m 0 min 0 min 258 W/m 15,8 km/h (3 Bft) 100,00 %
31.03.2018 14:42 14,8 C 18,9 C 14,4 C 59 % 0 lf 998,7 hPa 0,0 l/m 0 min 0 min 228 W/m 15,8 km/h (3 Bft) 97,87 %
31.03.2018 14:45 14,6 C 17,2 C 13,9 C 58 % 0 lf 998,6 hPa 0,0 l/m 0 min 0 min 225 W/m 15,8 km/h (3 Bft) 100,00 %
31.03.2018 14:48 14,4 C 16,1 C 13,9 C 57 % 0 lf 998,7 hPa 0,0 l/m 0 min 0 min 216 W/m 15,8 km/h (3 Bft) 92,16 %
31.03.2018 14:50 14,2 C 15,6 C 13,9 C 58 % 0 lf 998,7 hPa 0,0 l/m 0 min 0 min 220 W/m 9,0 km/h (2 Bft) 97,83 %
31.03.2018 14:52 14,2 C 15,6 C 13,9 C 58 % 0 lf 998,7 hPa 0,0 l/m 0 min 0 min 230 W/m 15,8 km/h (3 Bft) 95,74 %
31.03.2018 14:54 14,2 C 15,6 C 13,9 C 59 % 0 lf 998,7 hPa 0,0 l/m 0 min 0 min 242 W/m 13,5 km/h (3 Bft) 97,67 %
31.03.2018 14:56 14,2 C 15,6 C 13,9 C 59 % 0 lf 998,6 hPa 0,0 l/m 0 min 0 min 248 W/m 20,3 km/h (4 Bft) 91,67 %
31.03.2018 14:58 14,0 C 15,6 C 13,9 C 58 % 0 lf 998,7 hPa 0,0 l/m 0 min 0 min 257 W/m 20,3 km/h (4 Bft) 95,92 %
31.03.2018 15:00 13,9 C 15,6 C 13,9 C 59 % 0 lf 998,6 hPa 0,0 l/m 0 min 0 min 261 W/m 13,5 km/h (3 Bft) 93,62 %
31.03.2018 15:02 13,8 C 15,6 C 13,9 C 59 % 0 lf 998,6 hPa 0,0 l/m 0 min 0 min 268 W/m 13,5 km/h (3 Bft) 97,87 %
31.03.2018 15:04 13,7 C 16,1 C 13,9 C 59 % 0 lf 998,6 hPa 0,0 l/m 0 min 0 min 284 W/m 13,5 km/h (3 Bft) 97,87 %
31.03.2018 15:08 13,6 C 18,3 C 15,0 C 61 % 0 lf 998,5 hPa 0,0 l/m 4 min 0 min 385 W/m 15,8 km/h (3 Bft) 95,74 %
31.03.2018 15:10 13,6 C 18,9 C 15,6 C 61 % 0 lf 998,6 hPa 0,0 l/m 2 min 0 min 445 W/m 11,3 km/h (2 Bft) 91,49 %
31.03.2018 15:12 13,7 C 19,4 C 16,1 C 61 % 0 lf 998,5 hPa 0,0 l/m 2 min 0 min 440 W/m 15,8 km/h (3 Bft) 95,65 %
31.03.2018 15:14 13,7 C 18,9 C 16,1 C 61 % 0 lf 998,5 hPa 0,0 l/m 2 min 0 min 411 W/m 11,3 km/h (2 Bft) 97,73 %
31.03.2018 15:16 13,8 C 19,4 C 16,1 C 60 % 0 lf 998,5 hPa 0,0 l/m 2 min 0 min 388 W/m 15,8 km/h (3 Bft) 98,00 %
31.03.2018 15:18 13,8 C 18,9 C 15,6 C 59 % 0 lf 998,5 hPa 0,0 l/m 2 min 0 min 347 W/m 18,0 km/h (3 Bft) 97,87 %
31.03.2018 15:20 13,9 C 18,3 C 15,6 C 59 % 0 lf 998,5 hPa 0,0 l/m 2 min 0 min 328 W/m 18,0 km/h (3 Bft) 95,65 %
31.03.2018 15:22 13,9 C 17,8 C 15,0 C 59 % 0 lf 998,5 hPa 0,0 l/m 2 min 0 min 332 W/m 18,0 km/h (3 Bft) 95,74 %
31.03.2018 15:24 13,9 C 17,8 C 15,0 C 58 % 0 lf 998,5 hPa 0,0 l/m 2 min 0 min 323 W/m 20,3 km/h (4 Bft) 97,92 %
31.03.2018 15:26 13,9 C 17,8 C 15,0 C 57 % 0 lf 998,5 hPa 0,0 l/m 2 min 0 min 313 W/m 20,3 km/h (4 Bft) 95,65 %
31.03.2018 15:28 13,9 C 17,2 C 15,0 C 57 % 0 lf 998,5 hPa 0,0 l/m 2 min 0 min 308 W/m 18,0 km/h (3 Bft) 95,74 %
31.03.2018 15:30 13,9 C 18,3 C 15,0 C 58 % 0 lf 998,5 hPa 0,0 l/m 2 min 0 min 390 W/m 18,0 km/h (3 Bft) 97,87 %
31.03.2018 15:32 13,9 C 20,0 C 15,0 C 58 % 0 lf 998,5 hPa 0,0 l/m 2 min 0 min 499 W/m 15,8 km/h (3 Bft) 97,87 %
31.03.2018 15:34 14,1 C 21,1 C 15,0 C 59 % 0 lf 998,5 hPa 0,0 l/m 2 min 0 min 659 W/m 18,0 km/h (3 Bft) 97,67 %
31.03.2018 15:38 14,2 C 22,2 C 15,0 C 58 % 0 lf 998,4 hPa 0,0 l/m 4 min 0 min 671 W/m 22,5 km/h (4 Bft) 96,81 %
31.03.2018 15:40 14,2 C 20,0 C 13,9 C 56 % 0 lf 998,4 hPa 0,0 l/m 2 min 0 min 499 W/m 9,0 km/h (2 Bft) 96,00 %
31.03.2018 15:42 14,2 C 17,2 C 13,9 C 56 % 0 lf 998,4 hPa 0,0 l/m 0 min 0 min 149 W/m 13,5 km/h (3 Bft) 97,87 %
31.03.2018 15:44 14,2 C 16,1 C 13,3 C 57 % 0 lf 998,3 hPa 0,0 l/m 0 min 0 min 142 W/m 13,5 km/h (3 Bft) 95,74 %
31.03.2018 15:46 14,2 C 15,6 C 12,8 C 58 % 0 lf 998,3 hPa 0,0 l/m 0 min 0 min 138 W/m 13,5 km/h (3 Bft) 95,74 %
31.03.2018 15:48 14,1 C 14,4 C 12,8 C 58 % 0 lf 998,3 hPa 0,0 l/m 0 min 0 min 131 W/m 18,0 km/h (3 Bft) 97,83 %
31.03.2018 15:50 13,9 C 14,4 C 12,2 C 58 % 0 lf 998,3 hPa 0,0 l/m 0 min 0 min 129 W/m 20,3 km/h (4 Bft) 95,74 %
31.03.2018 15:52 13,9 C 14,4 C 12,2 C 59 % 0 lf 998,4 hPa 0,0 l/m 0 min 0 min 139 W/m 15,8 km/h (3 Bft) 95,74 %
31.03.2018 15:54 13,8 C 14,4 C 12,8 C 59 % 0 lf 998,4 hPa 0,0 l/m 0 min 0 min 158 W/m 15,8 km/h (3 Bft) 100,00 %
31.03.2018 15:56 13,7 C 15,0 C 12,8 C 59 % 0 lf 998,3 hPa 0,0 l/m 0 min 0 min 185 W/m 24,8 km/h (4 Bft) 97,87 %
31.03.2018 15:58 13,7 C 15,6 C 13,3 C 60 % 0 lf 998,3 hPa 0,0 l/m 0 min 0 min 214 W/m 18,0 km/h (3 Bft) 97,87 %
31.03.2018 16:00 13,6 C 15,6 C 13,3 C 60 % 0 lf 998,3 hPa 0,0 l/m 0 min 0 min 213 W/m 15,8 km/h (3 Bft) 100,00 %
31.03.2018 16:02 13,6 C 15,0 C 13,3 C 60 % 0 lf 998,3 hPa 0,0 l/m 0 min 0 min 197 W/m 9,0 km/h (2 Bft) 95,74 %
31.03.2018 16:04 13,6 C 15,0 C 13,9 C 61 % 0 lf 998,3 hPa 0,0 l/m 0 min 0 min 193 W/m 15,8 km/h (3 Bft) 100,00 %
31.03.2018 16:08 13,4 C 14,4 C 13,3 C 60 % 0 lf 998,3 hPa 0,0 l/m 0 min 0 min 190 W/m 15,8 km/h (3 Bft) 100,00 %
31.03.2018 16:10 13,4 C 14,4 C 13,3 C 61 % 0 lf 998,4 hPa 0,0 l/m 0 min 0 min 190 W/m 15,8 km/h (3 Bft) 97,87 %
31.03.2018 16:12 13,4 C 14,4 C 13,9 C 61 % 0 lf 998,3 hPa 0,0 l/m 0 min 0 min 189 W/m 11,3 km/h (2 Bft) 100,00 %
31.03.2018 16:14 13,4 C 15,0 C 13,9 C 60 % 0 lf 998,3 hPa 0,0 l/m 0 min 0 min 185 W/m 11,3 km/h (2 Bft) 97,87 %
31.03.2018 16:16 13,4 C 15,0 C 13,9 C 62 % 0 lf 998,3 hPa 0,0 l/m 0 min 0 min 172 W/m 9,0 km/h (2 Bft) 97,87 %
31.03.2018 16:18 13,3 C 14,4 C 13,9 C 61 % 0 lf 998,4 hPa 0,0 l/m 0 min 0 min 152 W/m 15,8 km/h (3 Bft) 95,74 %
31.03.2018 16:20 13,3 C 14,4 C 13,3 C 62 % 0 lf 998,4 hPa 0,0 l/m 0 min 0 min 143 W/m 11,3 km/h (2 Bft) 97,87 %
31.03.2018 16:22 13,3 C 14,4 C 13,3 C 62 % 0 lf 998,4 hPa 0,0 l/m 0 min 0 min 156 W/m 9,0 km/h (2 Bft) 97,87 %
31.03.2018 16:24 13,3 C 15,0 C 13,3 C 62 % 0 lf 998,3 hPa 0,0 l/m 0 min 0 min 178 W/m 9,0 km/h (2 Bft) 95,65 %
31.03.2018 16:26 13,3 C 15,0 C 13,3 C 62 % 0 lf 998,4 hPa 0,0 l/m 0 min 0 min 162 W/m 15,8 km/h (3 Bft) 95,74 %
31.03.2018 16:28 13,2 C 13,9 C 12,8 C 61 % 0 lf 998,4 hPa 0,0 l/m 0 min 0 min 160 W/m 18,0 km/h (3 Bft) 97,87 %
31.03.2018 16:30 13,2 C 13,9 C 12,8 C 61 % 0 lf 998,3 hPa 0,0 l/m 0 min 0 min 163 W/m 18,0 km/h (3 Bft) 95,74 %
31.03.2018 16:32 13,2 C 13,9 C 12,8 C 61 % 0 lf 998,4 hPa 0,0 l/m 0 min 0 min 158 W/m 15,8 km/h (3 Bft) 97,87 %
31.03.2018 16:34 13,1 C 13,9 C 12,8 C 61 % 0 lf 998,4 hPa 0,0 l/m 0 min 0 min 146 W/m 15,8 km/h (3 Bft) 97,87 %
31.03.2018 16:38 13,0 C 13,3 C 12,2 C 61 % 0 lf 998,3 hPa 0,0 l/m 0 min 0 min 129 W/m 18,0 km/h (3 Bft) 96,77 %
31.03.2018 16:40 12,9 C 13,3 C 12,2 C 61 % 0 lf 998,4 hPa 0,0 l/m 0 min 0 min 120 W/m 11,3 km/h (2 Bft) 93,62 %
31.03.2018 16:42 12,9 C 13,3 C 12,2 C 61 % 0 lf 998,3 hPa 0,0 l/m 0 min 0 min 116 W/m 20,3 km/h (4 Bft) 95,74 %
31.03.2018 16:44 12,8 C 13,3 C 12,2 C 61 % 0 lf 998,3 hPa 0,0 l/m 0 min 0 min 113 W/m 13,5 km/h (3 Bft) 95,74 %
31.03.2018 16:46 12,8 C 12,8 C 12,2 C 61 % 0 lf 998,4 hPa 0,0 l/m 0 min 0 min 108 W/m 18,0 km/h (3 Bft) 95,74 %
31.03.2018 16:48 12,8 C 12,8 C 11,7 C 61 % 0 lf 998,4 hPa 0,0 l/m 0 min 0 min 104 W/m 18,0 km/h (3 Bft) 95,65 %
31.03.2018 16:50 12,7 C 12,8 C 11,7 C 61 % 0 lf 998,4 hPa 0,0 l/m 0 min 0 min 104 W/m 13,5 km/h (3 Bft) 95,74 %
31.03.2018 16:52 12,7 C 13,3 C 11,7 C 62 % 0 lf 998,4 hPa 0,0 l/m 0 min 0 min 105 W/m 11,3 km/h (2 Bft) 91,49 %
31.03.2018 16:54 12,7 C 13,3 C 12,2 C 62 % 0 lf 998,3 hPa 0,0 l/m 0 min 0 min 113 W/m 9,0 km/h (2 Bft) 93,62 %
31.03.2018 16:56 12,7 C 13,3 C 12,2 C 62 % 0 lf 998,3 hPa 0,0 l/m 0 min 0 min 124 W/m 11,3 km/h (2 Bft) 95,74 %
31.03.2018 16:58 12,6 C 13,9 C 12,2 C 62 % 0 lf 998,3 hPa 0,0 l/m 0 min 0 min 143 W/m 9,0 km/h (2 Bft) 95,65 %
31.03.2018 17:00 12,7 C 13,9 C 12,2 C 62 % 0 lf 998,3 hPa 0,0 l/m 0 min 0 min 154 W/m 11,3 km/h (2 Bft) 95,74 %
31.03.2018 17:02 12,7 C 13,9 C 12,8 C 62 % 0 lf 998,3 hPa 0,0 l/m 0 min 0 min 170 W/m 11,3 km/h (2 Bft) 93,62 %
31.03.2018 17:04 12,7 C 14,4 C 12,8 C 62 % 0 lf 998,4 hPa 0,0 l/m 0 min 0 min 195 W/m 13,5 km/h (3 Bft) 95,74 %
31.03.2018 17:08 12,7 C 15,0 C 13,3 C 62 % 0 lf 998,4 hPa 0,0 l/m 4 min 0 min 218 W/m 9,0 km/h (2 Bft) 96,81 %
31.03.2018 17:10 12,8 C 15,0 C 13,9 C 62 % 0 lf 998,4 hPa 0,0 l/m 2 min 0 min 233 W/m 9,0 km/h (2 Bft) 95,65 %
31.03.2018 17:12 12,8 C 15,0 C 13,9 C 62 % 0 lf 998,4 hPa 0,0 l/m 2 min 0 min 273 W/m 6,8 km/h (2 Bft) 93,62 %
31.03.2018 17:14 12,8 C 15,0 C 13,9 C 63 % 0 lf 998,4 hPa 0,0 l/m 2 min 0 min 222 W/m 6,8 km/h (2 Bft) 95,74 %
31.03.2018 17:16 12,9 C 15,6 C 13,9 C 63 % 0 lf 998,4 hPa 0,0 l/m 2 min 0 min 214 W/m 9,0 km/h (2 Bft) 91,49 %
31.03.2018 17:18 12,9 C 15,6 C 13,9 C 62 % 0 lf 998,5 hPa 0,0 l/m 2 min 0 min 206 W/m 13,5 km/h (3 Bft) 95,74 %
31.03.2018 17:20 13,0 C 15,0 C 13,3 C 62 % 0 lf 998,5 hPa 0,0 l/m 0 min 0 min 197 W/m 13,5 km/h (3 Bft) 91,49 %
31.03.2018 17:22 13,1 C 15,0 C 13,3 C 62 % 0 lf 998,5 hPa 0,0 l/m 0 min 0 min 186 W/m 11,3 km/h (2 Bft) 95,65 %
31.03.2018 17:24 13,1 C 15,0 C 13,3 C 62 % 0 lf 998,5 hPa 0,0 l/m 0 min 0 min 188 W/m 13,5 km/h (3 Bft) 95,74 %
31.03.2018 17:26 13,1 C 15,0 C 12,8 C 62 % 0 lf 998,5 hPa 0,0 l/m 2 min 0 min 276 W/m 13,5 km/h (3 Bft) 91,49 %
31.03.2018 17:28 13,2 C 15,6 C 13,3 C 62 % 0 lf 998,4 hPa 0,0 l/m 2 min 0 min 437 W/m 11,3 km/h (2 Bft) 91,49 %
31.03.2018 17:30 13,2 C 15,6 C 13,3 C 62 % 0 lf 998,4 hPa 0,0 l/m 2 min 0 min 304 W/m 13,5 km/h (3 Bft) 93,62 %
31.03.2018 17:32 13,3 C 16,1 C 12,8 C 61 % 0 lf 998,4 hPa 0,0 l/m 2 min 0 min 273 W/m 9,0 km/h (2 Bft) 95,74 %
31.03.2018 17:34 13,3 C 15,6 C 12,8 C 61 % 0 lf 998,4 hPa 0,0 l/m 2 min 0 min 386 W/m 13,5 km/h (3 Bft) 97,83 %
31.03.2018 17:38 13,4 C 13,9 C 12,2 C 60 % 0 lf 998,3 hPa 0,0 l/m 0 min 0 min 98 W/m 9,0 km/h (2 Bft) 94,68 %
31.03.2018 17:40 13,4 C 13,9 C 12,2 C 60 % 0 lf 998,4 hPa 0,0 l/m 0 min 0 min 76 W/m 6,8 km/h (2 Bft) 95,74 %
31.03.2018 17:42 13,4 C 13,9 C 11,7 C 60 % 0 lf 998,3 hPa 0,0 l/m 0 min 0 min 66 W/m 6,8 km/h (2 Bft) 95,74 %
31.03.2018 17:44 13,4 C 13,3 C 11,7 C 60 % 0 lf 998,4 hPa 0,0 l/m 0 min 0 min 60 W/m 9,0 km/h (2 Bft) 93,62 %
31.03.2018 17:46 13,4 C 13,3 C 11,1 C 61 % 0 lf 998,4 hPa 0,0 l/m 0 min 0 min 62 W/m 11,3 km/h (2 Bft) 93,48 %
31.03.2018 17:48 13,3 C 12,8 C 11,1 C 61 % 0 lf 998,4 hPa 0,0 l/m 0 min 0 min 68 W/m 9,0 km/h (2 Bft) 93,62 %
31.03.2018 17:50 13,3 C 12,8 C 11,1 C 61 % 0 lf 998,4 hPa 0,0 l/m 0 min 0 min 76 W/m 9,0 km/h (2 Bft) 93,62 %
31.03.2018 17:52 13,3 C 12,8 C 11,1 C 61 % 0 lf 998,3 hPa 0,0 l/m 0 min 0 min 85 W/m 6,8 km/h (2 Bft) 95,74 %
31.03.2018 17:54 13,2 C 12,8 C 11,1 C 61 % 0 lf 998,3 hPa 0,0 l/m 0 min 0 min 90 W/m 4,5 km/h (1 Bft) 93,62 %
31.03.2018 17:56 13,2 C 12,8 C 11,1 C 61 % 0 lf 998,4 hPa 0,0 l/m 0 min 0 min 86 W/m 4,5 km/h (1 Bft) 95,65 %
31.03.2018 17:58 13,2 C 12,8 C 11,1 C 62 % 0 lf 998,4 hPa 0,0 l/m 0 min 0 min 81 W/m 6,8 km/h (2 Bft) 97,87 %
31.03.2018 18:00 13,1 C 12,8 C 11,1 C 61 % 0 lf 998,3 hPa 0,0 l/m 0 min 0 min 79 W/m 9,0 km/h (2 Bft) 97,87 %
31.03.2018 18:02 13,1 C 12,8 C 11,1 C 62 % 0 lf 998,3 hPa 0,0 l/m 0 min 0 min 117 W/m 9,0 km/h (2 Bft) 97,87 %
31.03.2018 18:04 13,0 C 12,8 C 11,1 C 62 % 0 lf 998,3 hPa 0,0 l/m 0 min 0 min 83 W/m 11,3 km/h (2 Bft) 97,87 %
31.03.2018 18:08 12,9 C 12,8 C 11,1 C 63 % 0 lf 998,3 hPa 0,0 l/m 0 min 0 min 111 W/m 6,8 km/h (2 Bft) 97,87 %
31.03.2018 18:10 12,9 C 12,8 C 11,1 C 63 % 0 lf 998,2 hPa 0,0 l/m 0 min 0 min 141 W/m 9,0 km/h (2 Bft) 97,83 %
31.03.2018 18:12 12,9 C 13,3 C 11,7 C 63 % 0 lf 998,3 hPa 0,0 l/m 2 min 0 min 233 W/m 9,0 km/h (2 Bft) 93,62 %
31.03.2018 18:14 12,9 C 13,9 C 11,7 C 64 % 0 lf 998,3 hPa 0,0 l/m 2 min 0 min 226 W/m 9,0 km/h (2 Bft) 97,87 %
31.03.2018 18:16 12,9 C 13,9 C 11,7 C 64 % 0 lf 998,2 hPa 0,0 l/m 2 min 0 min 201 W/m 9,0 km/h (2 Bft) 95,74 %
31.03.2018 18:18 12,9 C 13,9 C 11,7 C 64 % 0 lf 998,2 hPa 0,0 l/m 2 min 0 min 182 W/m 11,3 km/h (2 Bft) 97,87 %
31.03.2018 18:20 13,0 C 13,9 C 11,7 C 63 % 0 lf 998,3 hPa 0,0 l/m 2 min 0 min 150 W/m 11,3 km/h (2 Bft) 97,83 %
31.03.2018 18:22 13,1 C 13,9 C 11,7 C 64 % 0 lf 998,3 hPa 0,0 l/m 0 min 0 min 112 W/m 11,3 km/h (2 Bft) 97,87 %
31.03.2018 18:24 13,1 C 13,9 C 11,1 C 64 % 0 lf 998,3 hPa 0,0 l/m 0 min 0 min 55 W/m 11,3 km/h (2 Bft) 100,00 %
31.03.2018 18:26 13,1 C 13,3 C 10,6 C 63 % 0 lf 998,3 hPa 0,0 l/m 0 min 0 min 52 W/m 11,3 km/h (2 Bft) 100,00 %
31.03.2018 18:28 13,1 C 13,3 C 10,6 C 62 % 0 lf 998,2 hPa 0,0 l/m 0 min 0 min 68 W/m 11,3 km/h (2 Bft) 93,62 %
31.03.2018 18:30 13,1 C 13,3 C 10,6 C 63 % 0 lf 998,3 hPa 0,0 l/m 0 min 0 min 111 W/m 9,0 km/h (2 Bft) 97,87 %
31.03.2018 18:32 13,1 C 13,3 C 10,6 C 63 % 0 lf 998,3 hPa 0,0 l/m 2 min 0 min 120 W/m 11,3 km/h (2 Bft) 100,00 %
31.03.2018 18:34 13,1 C 13,3 C 10,6 C 63 % 0 lf 998,3 hPa 0,0 l/m 0 min 0 min 113 W/m 9,0 km/h (2 Bft) 97,87 %
31.03.2018 18:38 13,1 C 12,8 C 10,6 C 62 % 0 lf 998,3 hPa 0,0 l/m 0 min 0 min 78 W/m 9,0 km/h (2 Bft) 97,87 %
31.03.2018 18:40 13,1 C 12,8 C 10,6 C 63 % 0 lf 998,3 hPa 0,0 l/m 0 min 0 min 59 W/m 6,8 km/h (2 Bft) 100,00 %
31.03.2018 18:42 13,1 C 12,8 C 10,0 C 63 % 0 lf 998,3 hPa 0,0 l/m 0 min 0 min 71 W/m 6,8 km/h (2 Bft) 100,00 %
31.03.2018 18:44 13,0 C 12,8 C 10,0 C 63 % 0 lf 998,3 hPa 0,0 l/m 2 min 0 min 108 W/m 6,8 km/h (2 Bft) 100,00 %
31.03.2018 18:46 13,0 C 13,3 C 10,0 C 63 % 0 lf 998,3 hPa 0,0 l/m 2 min 0 min 113 W/m 6,8 km/h (2 Bft) 95,74 %
31.03.2018 18:48 13,0 C 13,3 C 10,6 C 62 % 0 lf 998,4 hPa 0,0 l/m 2 min 0 min 113 W/m 9,0 km/h (2 Bft) 100,00 %
31.03.2018 18:50 13,0 C 13,3 C 10,6 C 62 % 0 lf 998,4 hPa 0,0 l/m 2 min 0 min 105 W/m 6,8 km/h (2 Bft) 100,00 %
31.03.2018 18:52 13,0 C 13,3 C 10,6 C 62 % 0 lf 998,4 hPa 0,0 l/m 0 min 0 min 73 W/m 6,8 km/h (2 Bft) 100,00 %
31.03.2018 18:54 13,0 C 12,8 C 10,6 C 61 % 0 lf 998,3 hPa 0,0 l/m 0 min 0 min 50 W/m 6,8 km/h (2 Bft) 97,87 %
31.03.2018 18:56 13,0 C 12,8 C 10,6 C 61 % 0 lf 998,4 hPa 0,0 l/m 0 min 0 min 43 W/m 4,5 km/h (1 Bft) 100,00 %
31.03.2018 18:58 12,9 C 12,2 C 10,0 C 62 % 0 lf 998,3 hPa 0,0 l/m 0 min 0 min 36 W/m 4,5 km/h (1 Bft) 97,87 %
31.03.2018 19:00 12,9 C 12,2 C 10,0 C 62 % 0 lf 998,4 hPa 0,0 l/m 0 min 0 min 31 W/m 6,8 km/h (2 Bft) 97,87 %
31.03.2018 19:02 12,9 C 12,2 C 9,4 C 62 % 0 lf 998,3 hPa 0,0 l/m 0 min 0 min 26 W/m 6,8 km/h (2 Bft) 100,00 %
31.03.2018 19:04 12,8 C 11,7 C 9,4 C 62 % 0 lf 998,4 hPa 0,0 l/m 0 min 0 min 25 W/m 6,8 km/h (2 Bft) 95,74 %
31.03.2018 19:08 12,7 C 11,7 C 9,4 C 62 % 0 lf 998,5 hPa 0,0 l/m 0 min 0 min 22 W/m 6,8 km/h (2 Bft) 100,00 %
31.03.2018 19:10 12,7 C 11,1 C 9,4 C 62 % 0 lf 998,5 hPa 0,0 l/m 0 min 0 min 21 W/m 6,8 km/h (2 Bft) 100,00 %
31.03.2018 19:12 12,7 C 11,1 C 9,4 C 63 % 0 lf 998,6 hPa 0,0 l/m 0 min 0 min 19 W/m 4,5 km/h (1 Bft) 100,00 %
31.03.2018 19:14 12,6 C 11,1 C 9,4 C 63 % 0 lf 998,6 hPa 0,0 l/m 0 min 0 min 18 W/m 4,5 km/h (1 Bft) 100,00 %
31.03.2018 19:16 12,6 C 11,1 C 8,9 C 63 % 0 lf 998,6 hPa 0,0 l/m 0 min 0 min 17 W/m 4,5 km/h (1 Bft) 97,87 %
31.03.2018 19:18 12,5 C 11,1 C 8,9 C 63 % 0 lf 998,6 hPa 0,0 l/m 0 min 0 min 14 W/m 2,3 km/h (1 Bft) 97,87 %
31.03.2018 19:20 12,4 C 11,1 C 8,9 C 64 % 0 lf 998,7 hPa 0,0 l/m 0 min 0 min 13 W/m 0,0 km/h (0 Bft) 97,83 %
31.03.2018 19:22 12,4 C 11,1 C 8,9 C 64 % 0 lf 998,7 hPa 0,0 l/m 0 min 0 min 12 W/m 0,0 km/h (0 Bft) 97,87 %
31.03.2018 19:24 12,3 C 11,1 C 8,9 C 64 % 0 lf 998,7 hPa 0,0 l/m 0 min 0 min 11 W/m 0,0 km/h (0 Bft) 97,87 %
31.03.2018 19:26 12,3 C 10,6 C 8,9 C 64 % 0 lf 998,7 hPa 0,0 l/m 0 min 0 min 11 W/m 4,5 km/h (1 Bft) 95,74 %
31.03.2018 19:28 12,2 C 10,6 C 8,9 C 64 % 0 lf 998,7 hPa 0,0 l/m 0 min 0 min 11 W/m 6,8 km/h (2 Bft) 97,87 %
31.03.2018 19:30 12,2 C 10,6 C 8,9 C 64 % 0 lf 998,7 hPa 0,0 l/m 0 min 0 min 11 W/m 4,5 km/h (1 Bft) 97,87 %
31.03.2018 19:32 12,1 C 10,6 C 8,9 C 65 % 0 lf 998,7 hPa 0,0 l/m 0 min 0 min 10 W/m 4,5 km/h (1 Bft) 97,83 %
31.03.2018 19:34 12,1 C 10,6 C 8,9 C 65 % 0 lf 998,7 hPa 0,0 l/m 0 min 0 min 9 W/m 4,5 km/h (1 Bft) 95,74 %
31.03.2018 19:38 11,9 C 10,6 C 8,9 C 65 % 0 lf 998,7 hPa 0,0 l/m 0 min 0 min 8 W/m 4,5 km/h (1 Bft) 94,68 %
31.03.2018 19:40 11,9 C 10,6 C 8,9 C 65 % 0 lf 998,8 hPa 0,0 l/m 0 min 0 min 7 W/m 2,3 km/h (1 Bft) 95,74 %
31.03.2018 19:42 11,8 C 10,6 C 8,9 C 66 % 0 lf 998,8 hPa 0,0 l/m 0 min 0 min 6 W/m 4,5 km/h (1 Bft) 95,65 %
31.03.2018 19:44 11,8 C 10,6 C 8,9 C 66 % 0 lf 998,8 hPa 0,0 l/m 0 min 0 min 5 W/m 4,5 km/h (1 Bft) 95,74 %
31.03.2018 19:46 11,8 C 10,6 C 8,3 C 66 % 0 lf 998,8 hPa 0,0 l/m 0 min 0 min 5 W/m 4,5 km/h (1 Bft) 97,87 %
31.03.2018 19:48 11,7 C 10,6 C 8,3 C 66 % 0 lf 998,8 hPa 0,0 l/m 0 min 0 min 3 W/m 2,3 km/h (1 Bft) 97,87 %
31.03.2018 19:50 11,7 C 10,6 C 8,3 C 66 % 0 lf 998,8 hPa 0,0 l/m 0 min 0 min 0 W/m 4,5 km/h (1 Bft) 92,31 %
31.03.2018 19:52 11,7 C 10,6 C 8,3 C 67 % 0 lf 998,9 hPa 0,0 l/m 0 min 0 min 0 W/m 4,5 km/h (1 Bft) 95,24 %
31.03.2018 19:54 11,6 C 10,6 C 8,3 C 67 % 0 lf 998,9 hPa 0,0 l/m 0 min 0 min 0 W/m 2,3 km/h (1 Bft) 95,65 %
31.03.2018 19:56 11,6 C 10,6 C 8,3 C 67 % 0 lf 999,1 hPa 0,0 l/m 0 min 0 min 0 W/m 0,0 km/h (0 Bft) 93,62 %
31.03.2018 19:58 11,6 C 10,6 C 8,3 C 67 % 0 lf 999,1 hPa 0,0 l/m 0 min 0 min 0 W/m 13,5 km/h (3 Bft) 93,62 %
31.03.2018 20:00 11,5 C 10,6 C 8,3 C 68 % 0 lf 999,1 hPa 0,0 l/m 0 min 0 min 0 W/m 15,8 km/h (3 Bft) 93,62 %
31.03.2018 20:02 11,4 C 10,6 C 8,3 C 69 % 0 lf 999,2 hPa 0,0 l/m 0 min 0 min 0 W/m 15,8 km/h (3 Bft) 95,74 %
31.03.2018 20:04 11,4 C 10,0 C 8,9 C 70 % 0 lf 999,2 hPa 0,0 l/m 0 min 0 min 0 W/m 15,8 km/h (3 Bft) 93,62 %
31.03.2018 20:08 11,2 C 10,0 C 8,3 C 72 % 0 lf 999,4 hPa 0,0 l/m 0 min 0 min 0 W/m 27,0 km/h (4 Bft) 91,40 %
31.03.2018 20:10 11,1 C 10,0 C 8,3 C 72 % 2 lf 999,5 hPa 0,0 l/m 0 min 0 min 0 W/m 20,3 km/h (4 Bft) 93,62 %
31.03.2018 20:12 10,9 C 9,4 C 7,8 C 73 % 13 lf 999,4 hPa 0,0 l/m 0 min 2 min 0 W/m 22,5 km/h (4 Bft) 91,49 %
31.03.2018 20:14 10,8 C 9,4 C 7,2 C 73 % 15 lf 999,5 hPa 0,0 l/m 0 min 2 min 0 W/m 22,5 km/h (4 Bft) 95,74 %
31.03.2018 20:16 10,6 C 8,9 C 7,2 C 74 % 15 lf 999,5 hPa 0,0 l/m 0 min 2 min 0 W/m 18,0 km/h (3 Bft) 93,62 %
31.03.2018 20:18 10,4 C 8,9 C 6,7 C 75 % 15 lf 999,5 hPa 0,0 l/m 0 min 2 min 0 W/m 18,0 km/h (3 Bft) 91,30 %
31.03.2018 20:20 10,3 C 8,9 C 6,7 C 75 % 15 lf 999,6 hPa 0,0 l/m 0 min 2 min 0 W/m 22,5 km/h (4 Bft) 93,62 %
31.03.2018 20:22 10,2 C 8,3 C 6,7 C 75 % 15 lf 999,7 hPa 0,0 l/m 0 min 2 min 0 W/m 15,8 km/h (3 Bft) 89,36 %
31.03.2018 20:24 10,1 C 8,3 C 6,7 C 76 % 15 lf 999,7 hPa 0,0 l/m 0 min 2 min 0 W/m 13,5 km/h (3 Bft) 93,62 %
31.03.2018 20:26 10,0 C 8,3 C 6,1 C 76 % 15 lf 999,7 hPa 0,0 l/m 0 min 2 min 0 W/m 13,5 km/h (3 Bft) 87,23 %
31.03.2018 20:28 9,9 C 7,8 C 6,1 C 77 % 15 lf 999,7 hPa 0,0 l/m 0 min 2 min 0 W/m 13,5 km/h (3 Bft) 95,74 %
31.03.2018 20:30 9,8 C 7,8 C 6,1 C 78 % 15 lf 999,7 hPa 0,0 l/m 0 min 2 min 0 W/m 9,0 km/h (2 Bft) 93,48 %
31.03.2018 20:32 9,7 C 7,8 C 6,1 C 78 % 15 lf 999,8 hPa 0,0 l/m 0 min 2 min 0 W/m 2,3 km/h (1 Bft) 93,62 %
31.03.2018 20:34 9,7 C 7,8 C 6,1 C 79 % 15 lf 999,8 hPa 0,0 l/m 0 min 0 min 0 W/m 4,5 km/h (1 Bft) 93,62 %
31.03.2018 20:38 9,5 C 7,8 C 6,1 C 80 % 15 lf 999,9 hPa 0,0 l/m 0 min 4 min 0 W/m 6,8 km/h (2 Bft) 95,74 %
31.03.2018 20:40 9,4 C 7,2 C 6,1 C 80 % 15 lf 999,9 hPa 0,0 l/m 0 min 2 min 0 W/m 2,3 km/h (1 Bft) 95,74 %
31.03.2018 20:42 9,4 C 7,2 C 6,1 C 80 % 15 lf 999,9 hPa 0,0 l/m 0 min 2 min 0 W/m 6,8 km/h (2 Bft) 97,83 %
31.03.2018 20:44 9,3 C 7,2 C 6,1 C 81 % 15 lf 999,9 hPa 0,0 l/m 0 min 2 min 0 W/m 9,0 km/h (2 Bft) 93,62 %
31.03.2018 20:46 9,3 C 7,2 C 6,1 C 81 % 15 lf 1000,0 hPa 0,0 l/m 0 min 2 min 0 W/m 9,0 km/h (2 Bft) 97,87 %
31.03.2018 20:48 9,2 C 7,2 C 6,1 C 81 % 15 lf 1000,1 hPa 0,2 l/m 0 min 2 min 0 W/m 22,5 km/h (4 Bft) 93,62 %
31.03.2018 20:50 9,1 C 7,2 C 5,6 C 82 % 15 lf 1000,2 hPa 0,0 l/m 0 min 2 min 0 W/m 22,5 km/h (4 Bft) 100,00 %
31.03.2018 20:52 9,0 C 7,2 C 5,6 C 82 % 15 lf 1000,1 hPa 0,0 l/m 0 min 2 min 0 W/m 15,8 km/h (3 Bft) 100,00 %
31.03.2018 20:54 8,9 C 7,2 C 5,6 C 83 % 15 lf 1000,1 hPa 0,0 l/m 0 min 2 min 0 W/m 15,8 km/h (3 Bft) 100,00 %
31.03.2018 20:56 8,9 C 7,2 C 5,6 C 83 % 15 lf 1000,2 hPa 0,0 l/m 0 min 2 min 0 W/m 13,5 km/h (3 Bft) 100,00 %
31.03.2018 20:58 8,8 C 6,7 C 5,6 C 83 % 15 lf 1000,2 hPa 0,0 l/m 0 min 2 min 0 W/m 11,3 km/h (2 Bft) 100,00 %
31.03.2018 21:00 8,7 C 6,7 C 5,6 C 84 % 15 lf 1000,2 hPa 0,0 l/m 0 min 2 min 0 W/m 11,3 km/h (2 Bft) 97,87 %
31.03.2018 21:02 8,7 C 6,7 C 5,6 C 84 % 15 lf 1000,3 hPa 0,0 l/m 0 min 0 min 0 W/m 9,0 km/h (2 Bft) 93,62 %
31.03.2018 21:04 8,7 C 7,2 C 5,6 C 84 % 15 lf 1000,4 hPa 0,0 l/m 0 min 0 min 0 W/m 9,0 km/h (2 Bft) 100,00 %
31.03.2018 21:08 8,6 C 7,2 C 5,6 C 85 % 15 lf 1000,5 hPa 0,0 l/m 0 min 0 min 0 W/m 20,3 km/h (4 Bft) 100,00 %
31.03.2018 21:10 8,5 C 7,2 C 5,6 C 85 % 15 lf 1000,6 hPa 0,0 l/m 0 min 0 min 0 W/m 18,0 km/h (3 Bft) 100,00 %
31.03.2018 21:12 8,4 C 7,2 C 5,6 C 85 % 15 lf 1000,6 hPa 0,0 l/m 0 min 0 min 0 W/m 20,3 km/h (4 Bft) 100,00 %
31.03.2018 21:14 8,3 C 7,2 C 5,6 C 85 % 15 lf 1000,7 hPa 0,0 l/m 0 min 0 min 0 W/m 24,8 km/h (4 Bft) 100,00 %
31.03.2018 21:16 8,3 C 7,2 C 5,6 C 86 % 15 lf 1000,8 hPa 0,0 l/m 0 min 0 min 0 W/m 22,5 km/h (4 Bft) 97,83 %
31.03.2018 21:18 8,2 C 7,2 C 5,6 C 86 % 15 lf 1000,7 hPa 0,0 l/m 0 min 0 min 0 W/m 13,5 km/h (3 Bft) 97,87 %
31.03.2018 21:20 8,2 C 7,2 C 5,6 C 86 % 15 lf 1000,7 hPa 0,0 l/m 0 min 0 min 0 W/m 20,3 km/h (4 Bft) 97,87 %
31.03.2018 21:22 8,2 C 7,2 C 5,6 C 86 % 15 lf 1000,7 hPa 0,0 l/m 0 min 0 min 0 W/m 15,8 km/h (3 Bft) 100,00 %
31.03.2018 21:24 8,2 C 7,2 C 5,6 C 86 % 15 lf 1000,8 hPa 0,0 l/m 0 min 2 min 0 W/m 18,0 km/h (3 Bft) 100,00 %
31.03.2018 21:26 8,1 C 7,2 C 5,6 C 87 % 15 lf 1000,8 hPa 0,0 l/m 0 min 0 min 0 W/m 15,8 km/h (3 Bft) 97,87 %
31.03.2018 21:28 8,1 C 7,2 C 5,6 C 87 % 15 lf 1000,8 hPa 0,0 l/m 0 min 2 min 0 W/m 11,3 km/h (2 Bft) 97,87 %
31.03.2018 21:30 8,1 C 7,2 C 5,6 C 87 % 15 lf 1000,9 hPa 0,0 l/m 0 min 2 min 0 W/m 13,5 km/h (3 Bft) 100,00 %
31.03.2018 21:32 8,1 C 7,2 C 5,6 C 87 % 15 lf 1000,9 hPa 0,0 l/m 0 min 2 min 0 W/m 11,3 km/h (2 Bft) 97,87 %
31.03.2018 21:34 8,1 C 7,2 C 5,6 C 87 % 15 lf 1001,0 hPa 0,2 l/m 0 min 2 min 0 W/m 6,8 km/h (2 Bft) 100,00 %
31.03.2018 21:38 8,1 C 6,7 C 5,6 C 88 % 15 lf 1001,0 hPa 0,4 l/m 0 min 4 min 0 W/m 13,5 km/h (3 Bft) 98,94 %
31.03.2018 21:40 8,0 C 6,7 C 5,6 C 88 % 15 lf 1001,0 hPa 0,2 l/m 0 min 2 min 0 W/m 11,3 km/h (2 Bft) 100,00 %
31.03.2018 21:42 8,0 C 6,7 C 5,6 C 88 % 15 lf 1001,0 hPa 0,0 l/m 0 min 2 min 0 W/m 9,0 km/h (2 Bft) 97,87 %
31.03.2018 21:44 8,0 C 6,7 C 5,6 C 88 % 15 lf 1001,1 hPa 0,0 l/m 0 min 2 min 0 W/m 6,8 km/h (2 Bft) 97,87 %
31.03.2018 21:46 7,9 C 6,7 C 5,6 C 88 % 15 lf 1001,1 hPa 0,0 l/m 0 min 2 min 0 W/m 9,0 km/h (2 Bft) 95,74 %
31.03.2018 21:48 7,9 C 6,7 C 5,6 C 89 % 15 lf 1001,1 hPa 0,2 l/m 0 min 2 min 0 W/m 6,8 km/h (2 Bft) 100,00 %
31.03.2018 21:50 7,9 C 6,1 C 5,6 C 89 % 15 lf 1001,0 hPa 0,0 l/m 0 min 2 min 0 W/m 6,8 km/h (2 Bft) 97,87 %
31.03.2018 21:52 7,9 C 6,7 C 5,6 C 89 % 15 lf 1001,1 hPa 0,2 l/m 0 min 2 min 0 W/m 6,8 km/h (2 Bft) 95,65 %
31.03.2018 21:54 7,9 C 6,7 C 5,6 C 89 % 15 lf 1001,0 hPa 0,2 l/m 0 min 2 min 0 W/m 4,5 km/h (1 Bft) 97,87 %
31.03.2018 21:56 7,8 C 6,7 C 5,6 C 90 % 15 lf 1000,9 hPa 0,4 l/m 0 min 2 min 0 W/m 6,8 km/h (2 Bft) 100,00 %
31.03.2018 21:58 7,8 C 6,7 C 5,6 C 90 % 15 lf 1000,9 hPa 0,4 l/m 0 min 2 min 0 W/m 6,8 km/h (2 Bft) 95,74 %
31.03.2018 22:00 7,8 C 6,7 C 5,6 C 90 % 15 lf 1000,9 hPa 0,2 l/m 0 min 2 min 0 W/m 4,5 km/h (1 Bft) 98,00 %
31.03.2018 22:02 7,8 C 6,7 C 5,6 C 90 % 15 lf 1001,0 hPa 0,0 l/m 0 min 2 min 0 W/m 4,5 km/h (1 Bft) 97,83 %
31.03.2018 22:04 7,8 C 6,7 C 5,6 C 90 % 15 lf 1000,9 hPa 0,0 l/m 0 min 2 min 0 W/m 4,5 km/h (1 Bft) 95,74 %
31.03.2018 22:08 7,8 C 6,7 C 5,6 C 90 % 15 lf 1000,9 hPa 0,2 l/m 0 min 4 min 0 W/m 2,3 km/h (1 Bft) 96,81 %
31.03.2018 22:10 7,7 C 6,7 C 5,6 C 91 % 15 lf 1000,8 hPa 0,2 l/m 0 min 2 min 0 W/m 0,0 km/h (0 Bft) 93,62 %
31.03.2018 22:12 7,7 C 6,7 C 5,6 C 91 % 15 lf 1000,8 hPa 0,0 l/m 0 min 2 min 0 W/m 4,5 km/h (1 Bft) 97,87 %
31.03.2018 22:14 7,7 C 6,7 C 5,6 C 91 % 15 lf 1000,7 hPa 0,2 l/m 0 min 2 min 0 W/m 11,3 km/h (2 Bft) 100,00 %
31.03.2018 22:16 7,7 C 6,7 C 5,6 C 91 % 15 lf 1000,7 hPa 0,2 l/m 0 min 2 min 0 W/m 13,5 km/h (3 Bft) 95,74 %
31.03.2018 22:18 7,7 C 6,7 C 5,6 C 91 % 15 lf 1000,7 hPa 0,0 l/m 0 min 2 min 0 W/m 11,3 km/h (2 Bft) 97,87 %
31.03.2018 22:20 7,7 C 6,1 C 5,6 C 91 % 15 lf 1000,9 hPa 0,0 l/m 0 min 2 min 0 W/m 11,3 km/h (2 Bft) 97,87 %
31.03.2018 22:22 7,7 C 6,1 C 5,6 C 91 % 15 lf 1000,8 hPa 0,0 l/m 0 min 2 min 0 W/m 6,8 km/h (2 Bft) 97,87 %
31.03.2018 22:24 7,6 C 6,1 C 5,6 C 91 % 15 lf 1000,8 hPa 0,0 l/m 0 min 0 min 0 W/m 4,5 km/h (1 Bft) 97,87 %
31.03.2018 22:26 7,6 C 6,1 C 5,6 C 91 % 15 lf 1000,8 hPa 0,0 l/m 0 min 0 min 0 W/m 6,8 km/h (2 Bft) 91,30 %
31.03.2018 22:28 7,6 C 6,1 C 5,6 C 91 % 15 lf 1000,8 hPa 0,0 l/m 0 min 0 min 0 W/m 6,8 km/h (2 Bft) 97,87 %
31.03.2018 22:30 7,6 C 6,1 C 5,6 C 92 % 15 lf 1000,8 hPa 0,0 l/m 0 min 0 min 0 W/m 6,8 km/h (2 Bft) 97,87 %
31.03.2018 22:32 7,5 C 6,1 C 5,6 C 92 % 15 lf 1000,8 hPa 0,0 l/m 0 min 0 min 0 W/m 4,5 km/h (1 Bft) 97,87 %
31.03.2018 22:34 7,5 C 6,1 C 5,6 C 92 % 15 lf 1000,8 hPa 0,0 l/m 0 min 0 min 0 W/m 4,5 km/h (1 Bft) 97,87 %
31.03.2018 22:36 7,4 C 6,1 C 5,6 C 92 % 15 lf 1000,8 hPa 0,0 l/m 0 min 0 min 0 W/m 6,8 km/h (2 Bft) 95,74 %
31.03.2018 22:38 7,4 C 6,1 C 5,6 C 92 % 15 lf 1000,8 hPa 0,0 l/m 0 min 0 min 0 W/m 6,8 km/h (2 Bft) 100,00 %
31.03.2018 22:40 7,4 C 6,1 C 5,6 C 92 % 15 lf 1000,8 hPa 0,0 l/m 0 min 0 min 0 W/m 4,5 km/h (1 Bft) 95,74 %
31.03.2018 22:42 7,4 C 6,1 C 5,6 C 92 % 15 lf 1000,8 hPa 0,0 l/m 0 min 0 min 0 W/m 4,5 km/h (1 Bft) 91,49 %
31.03.2018 22:44 7,4 C 6,1 C 5,6 C 92 % 15 lf 1000,8 hPa 0,0 l/m 0 min 0 min 0 W/m 2,3 km/h (1 Bft) 93,62 %
31.03.2018 22:46 7,4 C 6,1 C 5,6 C 92 % 15 lf 1000,9 hPa 0,0 l/m 0 min 0 min 0 W/m 4,5 km/h (1 Bft) 95,74 %
31.03.2018 22:48 7,3 C 6,1 C 5,6 C 92 % 15 lf 1000,9 hPa 0,0 l/m 0 min 0 min 0 W/m 4,5 km/h (1 Bft) 95,65 %
31.03.2018 22:50 7,3 C 6,1 C 5,6 C 92 % 15 lf 1000,9 hPa 0,0 l/m 0 min 0 min 0 W/m 0,0 km/h (0 Bft) 93,62 %
31.03.2018 22:52 7,3 C 6,1 C 5,6 C 92 % 15 lf 1001,0 hPa 0,0 l/m 0 min 0 min 0 W/m 0,0 km/h (0 Bft) 93,62 %
31.03.2018 22:54 7,3 C 6,1 C 5,6 C 92 % 15 lf 1001,0 hPa 0,0 l/m 0 min 0 min 0 W/m 0,0 km/h (0 Bft) 93,62 %
31.03.2018 22:56 7,3 C 6,1 C 5,6 C 93 % 15 lf 1001,0 hPa 0,0 l/m 0 min 0 min 0 W/m 0,0 km/h (0 Bft) 91,49 %
31.03.2018 22:58 7,3 C 6,1 C 5,6 C 93 % 15 lf 1001,0 hPa 0,0 l/m 0 min 0 min 0 W/m 0,0 km/h (0 Bft) 93,62 %
31.03.2018 23:00 7,3 C 6,1 C 5,6 C 93 % 15 lf 1000,9 hPa 0,0 l/m 0 min 0 min 0 W/m 0,0 km/h (0 Bft) 91,30 %
31.03.2018 23:02 7,3 C 6,1 C 5,6 C 93 % 15 lf 1001,0 hPa 0,0 l/m 0 min 0 min 0 W/m 0,0 km/h (0 Bft) 93,62 %
31.03.2018 23:04 7,3 C 6,1 C 5,6 C 93 % 15 lf 1001,0 hPa 0,0 l/m 0 min 0 min 0 W/m 6,8 km/h (2 Bft) 93,62 %
31.03.2018 23:08 7,2 C 6,1 C 5,6 C 93 % 15 lf 1001,1 hPa 0,0 l/m 0 min 0 min 0 W/m 4,5 km/h (1 Bft) 92,55 %
31.03.2018 23:10 7,2 C 6,1 C 5,6 C 93 % 15 lf 1001,1 hPa 0,0 l/m 0 min 0 min 0 W/m 0,0 km/h (0 Bft) 91,49 %
31.03.2018 23:12 7,2 C 6,1 C 5,6 C 93 % 15 lf 1001,1 hPa 0,0 l/m 0 min 0 min 0 W/m 2,3 km/h (1 Bft) 93,48 %
31.03.2018 23:14 7,2 C 6,1 C 5,6 C 93 % 15 lf 1001,2 hPa 0,0 l/m 0 min 0 min 0 W/m 6,8 km/h (2 Bft) 91,49 %
31.03.2018 23:16 7,2 C 6,1 C 5,6 C 93 % 15 lf 1001,2 hPa 0,0 l/m 0 min 0 min 0 W/m 4,5 km/h (1 Bft) 91,49 %
31.03.2018 23:18 7,2 C 6,1 C 5,6 C 93 % 15 lf 1001,1 hPa 0,0 l/m 0 min 0 min 0 W/m 6,8 km/h (2 Bft) 93,62 %
31.03.2018 23:20 7,2 C 6,1 C 5,6 C 93 % 15 lf 1001,2 hPa 0,0 l/m 0 min 0 min 0 W/m 4,5 km/h (1 Bft) 93,62 %
31.03.2018 23:22 7,2 C 6,1 C 5,6 C 93 % 15 lf 1001,2 hPa 0,0 l/m 0 min 0 min 0 W/m 2,3 km/h (1 Bft) 91,49 %
31.03.2018 23:24 7,2 C 6,1 C 5,6 C 93 % 15 lf 1001,2 hPa 0,0 l/m 0 min 0 min 0 W/m 6,8 km/h (2 Bft) 93,48 %
31.03.2018 23:26 7,2 C 6,1 C 5,6 C 94 % 15 lf 1001,2 hPa 0,0 l/m 0 min 0 min 0 W/m 2,3 km/h (1 Bft) 95,74 %
31.03.2018 23:28 7,2 C 6,1 C 5,6 C 94 % 15 lf 1001,3 hPa 0,0 l/m 0 min 0 min 0 W/m 6,8 km/h (2 Bft) 93,62 %
31.03.2018 23:30 7,2 C 6,1 C 5,6 C 93 % 15 lf 1001,2 hPa 0,0 l/m 0 min 0 min 0 W/m 4,5 km/h (1 Bft) 91,49 %
31.03.2018 23:32 7,1 C 6,1 C 5,6 C 93 % 15 lf 1001,2 hPa 0,0 l/m 0 min 0 min 0 W/m 4,5 km/h (1 Bft) 95,74 %
31.03.2018 23:34 7,1 C 6,1 C 5,6 C 94 % 15 lf 1001,2 hPa 0,0 l/m 0 min 0 min 0 W/m 2,3 km/h (1 Bft) 89,36 %
31.03.2018 23:36 7,1 C 6,1 C 5,6 C 94 % 15 lf 1001,2 hPa 0,0 l/m 0 min 0 min 0 W/m 6,8 km/h (2 Bft) 95,65 %
31.03.2018 23:38 7,1 C 6,1 C 5,6 C 94 % 15 lf 1001,2 hPa 0,0 l/m 0 min 0 min 0 W/m 4,5 km/h (1 Bft) 91,49 %
31.03.2018 23:40 7,1 C 6,1 C 5,6 C 94 % 15 lf 1001,3 hPa 0,0 l/m 0 min 0 min 0 W/m 6,8 km/h (2 Bft) 95,74 %
31.03.2018 23:42 7,1 C 6,1 C 5,6 C 94 % 15 lf 1001,3 hPa 0,0 l/m 0 min 0 min 0 W/m 11,3 km/h (2 Bft) 97,87 %
31.03.2018 23:44 7,1 C 6,1 C 5,6 C 94 % 15 lf 1001,3 hPa 0,0 l/m 0 min 0 min 0 W/m 9,0 km/h (2 Bft) 97,87 %
31.03.2018 23:46 7,1 C 6,1 C 5,6 C 94 % 15 lf 1001,3 hPa 0,0 l/m 0 min 0 min 0 W/m 6,8 km/h (2 Bft) 97,87 %
31.03.2018 23:48 7,1 C 6,1 C 5,6 C 94 % 15 lf 1001,3 hPa 0,0 l/m 0 min 0 min 0 W/m 6,8 km/h (2 Bft) 97,83 %
31.03.2018 23:50 7,1 C 6,1 C 5,6 C 94 % 15 lf 1001,4 hPa 0,0 l/m 0 min 0 min 0 W/m 6,8 km/h (2 Bft) 93,62 %
31.03.2018 23:52 7,1 C 6,1 C 5,6 C 94 % 15 lf 1001,3 hPa 0,0 l/m 0 min 0 min 0 W/m 9,0 km/h (2 Bft) 100,00 %
31.03.2018 23:54 7,0 C 6,1 C 5,6 C 94 % 15 lf 1001,3 hPa 0,0 l/m 0 min 0 min 0 W/m 6,8 km/h (2 Bft) 100,00 %
31.03.2018 23:56 7,0 C 6,1 C 5,6 C 94 % 15 lf 1001,3 hPa 0,0 l/m 0 min 0 min 0 W/m 6,8 km/h (2 Bft) 100,00 %
31.03.2018 23:58 7,0 C 6,1 C 5,6 C 94 % 15 lf 1001,4 hPa 0,0 l/m 0 min 0 min 0 W/m 6,8 km/h (2 Bft) 97,83 %
_ Min-Zeit 07:54 07:14 07:10 15:40 00:00 00:02 - - - - 01:24 11:53
Minimum _ 2,9 C 2,2 C -0,6 C 56 % 0 lf 997,0 hPa - - - - 0,0 km/h (0 Bft) 4,76 %
_ Max-Zeit 14:30 14:16 11:46 08:50 05:24 23:50 21:38 11:53 20:38 14:16 13:34 01:00
Maximum _ 14,9 C 26,1 C 18,3 C 96 % 15 lf 1001,4 hPa 0,4 l/m 5 min 4 min 795 W/m 29,3 km/h
W-SW (5 Bft)
100,00 %
Durchschnitt _ 8,8 C 10,2 C 7,4 C 80 % 6 lf 998,4 hPa #3,4 l/m #6:28 h #1:46 h 274 W/m 8,8 km/h (2 Bft) 95,85 %
© 2018 W. Hausmann